DH1GAP-13 Weather Reports


time (UTC)temp
F
wind
direction
speed
knots
gust
knots
rain 1hr
in
rain 24hr
in
rain mn
in
humidity
%
barometer
mb
20260506185207 51 202 0.0 0.0 0.00 0.10 0.00 70 1019.0
20260506185107 51 202 4.3 0.0 0.00 0.10 0.00 70 1019.0
20260506185007 51 202 1.7 0.0 0.00 0.10 0.00 70 1019.0
20260506184907 51 202 0.0 0.0 0.00 0.10 0.00 70 1019.0
20260506184807 51 202 0.9 0.0 0.00 0.10 0.00 70 1019.0
20260506184707 51 202 0.0 0.0 0.00 0.10 0.00 70 1019.0
20260506184607 51 180 0.0 0.0 0.00 0.10 0.00 70 1019.0
20260506184507 52 180 0.0 0.0 0.00 0.10 0.00 70 1019.0
20260506184407 52 180 0.0 0.0 0.00 0.10 0.00 70 1019.0
20260506184307 52 202 0.0 0.0 0.00 0.10 0.00 70 1018.9
20260506184207 52 202 0.0 0.0 0.00 0.10 0.00 70 1018.9
20260506184107 52 180 0.0 0.0 0.00 0.10 0.00 70 1019.0
20260506184007 52 180 0.0 0.0 0.00 0.10 0.00 70 1019.0
20260506183907 52 180 1.7 0.0 0.00 0.10 0.00 70 1018.9
20260506183807 52 180 0.0 0.0 0.00 0.10 0.00 70 1018.9
20260506183707 52 180 0.0 0.0 0.00 0.10 0.00 70 1018.9
20260506183607 52 202 0.0 0.0 0.00 0.10 0.00 69 1018.9
20260506183507 52 202 0.0 0.0 0.00 0.10 0.00 69 1018.7
20260506183407 52 202 0.0 0.0 0.00 0.10 0.00 69 1018.9
20260506183307 52 202 2.6 0.0 0.00 0.10 0.00 69 1018.7
20260506183207 52 202 3.5 0.0 0.00 0.10 0.00 69 1018.9
20260506183107 52 180 3.5 0.0 0.00 0.10 0.00 69 1018.9
20260506183007 52 180 0.0 0.0 0.00 0.10 0.00 69 1018.7
20260506182907 52 180 0.0 0.0 0.00 0.10 0.00 69 1018.7
20260506182807 52 180 0.0 0.0 0.00 0.10 0.00 69 1018.7
20260506182707 52 180 0.0 0.0 0.00 0.10 0.00 69 1018.7
20260506182607 52 180 3.5 0.0 0.00 0.10 0.00 69 1018.9
20260506182507 52 180 0.0 0.0 0.00 0.10 0.00 69 1018.7
20260506182407 52 180 0.0 0.0 0.00 0.10 0.00 69 1018.9
20260506182307 52 180 0.0 0.0 0.00 0.10 0.00 69 1018.9
20260506182207 53 180 0.0 0.0 0.00 0.10 0.00 69 1018.7
20260506182107 53 180 0.0 0.0 0.00 0.10 0.00 69 1018.9
20260506182007 53 180 0.0 0.0 0.00 0.10 0.00 69 1018.7
20260506181907 53 180 0.0 0.0 0.00 0.10 0.00 69 1018.9
20260506181807 53 180 0.0 0.0 0.00 0.10 0.00 69 1018.7
20260506181707 53 180 0.0 0.0 0.00 0.10 0.00 69 1018.9
20260506181607 53 180 0.0 0.0 0.00 0.10 0.00 69 1018.7
20260506181507 53 180 0.0 0.0 0.00 0.10 0.00 69 1018.9
20260506181407 53 180 0.0 0.0 0.00 0.10 0.00 69 1018.9
20260506181307 53 180 0.0 0.0 0.00 0.10 0.00 68 1018.7
20260506181207 53 180 1.7 0.0 0.00 0.10 0.00 68 1018.7
20260506181107 53 180 0.0 0.0 0.00 0.10 0.00 68 1018.7
20260506181007 53 180 0.0 0.0 0.00 0.10 0.00 68 1018.9
20260506180907 53 180 0.0 0.0 0.00 0.10 0.00 68 1018.7
20260506180807 53 180 0.0 0.0 0.00 0.10 0.00 68 1018.7
20260506180707 53 180 0.0 0.0 0.00 0.10 0.00 68 1018.7
20260506180607 53 180 0.0 0.0 0.00 0.10 0.00 68 1018.7
20260506180507 53 180 0.0 0.0 0.00 0.10 0.00 68 1018.7
20260506180407 53 180 0.0 0.0 0.00 0.10 0.00 68 1018.7
20260506180307 53 180 0.0 0.0 0.00 0.10 0.00 68 1018.5
20260506180207 54 180 0.0 0.0 0.00 0.10 0.00 68 1018.5
20260506180107 54 180 6.1 0.0 0.00 0.10 0.00 68 1018.7
20260506180007 54 180 0.0 0.0 0.00 0.10 0.00 68 1018.5
20260506175907 54 180 0.0 0.0 0.00 0.10 0.00 68 1018.5
20260506175807 54 180 0.0 0.0 0.00 0.10 0.00 68 1018.5
20260506175707 54 180 0.0 0.0 0.00 0.10 0.00 68 1018.5
20260506175607 54 180 0.0 0.0 0.00 0.10 0.00 68 1018.5
20260506175507 54 180 0.0 0.0 0.00 0.10 0.00 68 1018.5
20260506175407 54 180 0.0 0.0 0.00 0.10 0.00 68 1018.5
20260506175307 54 202 0.0 0.0 0.00 0.10 0.00 68 1018.5
20260506175207 54 202 0.0 0.0 0.00 0.10 0.00 68 1018.5
20260506175107 54 202 7.8 0.0 0.00 0.10 0.00 68 1018.5
20260506175007 54 202 3.5 0.0 0.00 0.10 0.00 68 1018.4
20260506174907 54 202 2.6 0.0 0.00 0.10 0.00 68 1018.4
20260506174807 54 202 0.0 0.0 0.00 0.10 0.00 68 1018.4
20260506174707 54 202 1.7 0.0 0.00 0.10 0.00 68 1018.5
20260506174607 54 202 0.0 0.0 0.00 0.10 0.00 68 1018.5
20260506174507 54 180 1.7 0.0 0.00 0.10 0.00 68 1018.7
20260506174407 54 202 5.2 0.0 0.00 0.10 0.00 68 1018.5
20260506174307 54 202 0.0 0.0 0.00 0.10 0.00 68 1018.5
20260506174207 54 202 0.0 0.0 0.00 0.10 0.00 68 1018.5
20260506174107 54 157 6.1 0.0 0.00 0.10 0.00 68 1018.5
20260506174007 54 202 0.0 0.0 0.00 0.10 0.00 68 1018.5
20260506173907 55 202 4.3 0.0 0.00 0.10 0.00 68 1018.5
20260506173807 55 180 1.7 0.0 0.00 0.10 0.00 68 1018.5
20260506173707 55 157 2.6 0.0 0.00 0.10 0.00 68 1018.5
20260506173607 55 180 5.2 0.0 0.00 0.10 0.00 68 1018.5
20260506173507 55 180 0.0 0.0 0.00 0.10 0.00 67 1018.5
20260506173407 55 180 4.3 0.0 0.00 0.10 0.00 67 1018.5
20260506173307 55 157 7.8 0.0 0.00 0.10 0.00 67 1018.5
20260506173207 55 180 7.0 0.0 0.00 0.10 0.00 67 1018.5
20260506173107 55 202 8.7 0.0 0.00 0.10 0.00 67 1018.4
20260506173007 55 180 5.2 0.0 0.00 0.10 0.00 67 1018.4
20260506172907 55 180 0.0 0.0 0.00 0.10 0.00 67 1018.4
20260506172807 55 180 7.8 0.0 0.00 0.10 0.00 67 1018.4
20260506172707 55 202 7.8 0.0 0.00 0.10 0.00 67 1018.2
20260506172607 55 180 7.8 0.0 0.00 0.10 0.00 67 1018.4
20260506172507 55 180 3.5 0.0 0.00 0.10 0.00 67 1018.2
20260506172407 55 157 1.7 0.0 0.00 0.10 0.00 67 1018.2
20260506172307 55 180 3.5 0.0 0.00 0.10 0.00 67 1018.2
20260506172207 55 180 0.0 0.0 0.00 0.10 0.00 67 1018.2
20260506172107 55 202 3.5 0.0 0.00 0.10 0.00 67 1018.2
20260506172007 55 180 4.3 0.0 0.00 0.10 0.00 67 1018.2
20260506171907 55 180 2.6 0.0 0.00 0.10 0.00 67 1018.2
20260506171807 55 202 9.6 0.0 0.00 0.10 0.00 67 1018.2
20260506171707 55 180 1.7 0.0 0.00 0.10 0.00 67 1018.2
20260506171607 55 157 7.0 0.0 0.00 0.10 0.00 67 1018.2
20260506171507 55 180 6.1 0.0 0.00 0.10 0.00 67 1018.2
20260506171407 55 202 8.7 0.0 0.00 0.10 0.00 67 1018.2
20260506171307 56 202 0.0 0.0 0.00 0.10 0.00 67 1018.2
20260506171207 56 180 159.0 0.0 0.00 0.10 0.00 67 1018.0
20260506171107 56 202 7.0 0.0 0.00 0.10 0.00 66 1018.0
20260506171007 56 180 0.9 0.0 0.00 0.10 0.00 66 1018.0
20260506170907 56 180 1.7 0.0 0.00 0.10 0.00 66 1018.0
20260506170807 56 180 4.3 0.0 0.00 0.10 0.00 66 1018.0
20260506170707 56 202 2.6 0.0 0.00 0.10 0.00 67 1018.0
20260506170607 56 180 2.6 0.0 0.00 0.10 0.00 67 1018.0
20260506170507 56 180 0.9 0.0 0.00 0.10 0.00 67 1017.9
20260506170407 56 180 0.0 0.0 0.00 0.10 0.00 67 1017.9
20260506170307 56 180 0.0 0.0 0.00 0.10 0.00 67 1017.7
20260506170207 56 180 3.5 0.0 0.00 0.10 0.00 67 1017.9
20260506170107 56 180 0.0 0.0 0.00 0.10 0.00 67 1017.7
20260506170007 56 225 10.4 0.0 0.00 0.10 0.00 67 1017.7
20260506165907 57 180 2.6 0.0 0.00 0.10 0.00 67 1017.7
20260506165807 57 180 0.0 0.0 0.00 0.10 0.00 67 1018.0
20260506165707 57 180 0.0 0.0 0.00 0.10 0.00 67 1018.0
20260506165607 57 202 7.8 0.0 0.00 0.10 0.00 67 1018.0
20260506165507 57 180 0.9 0.0 0.00 0.10 0.00 67 1018.0
20260506165407 57 180 1.7 0.0 0.00 0.10 0.00 67 1017.9
20260506165307 57 180 0.0 0.0 0.00 0.10 0.00 67 1018.0
20260506165207 57 202 1.7 0.0 0.00 0.10 0.00 67 1017.9
20260506165107 57 180 6.1 0.0 0.00 0.10 0.00 67 1017.9
20260506165007 57 202 1.7 0.0 0.00 0.10 0.00 67 1017.7
20260506164907 57 180 0.0 0.0 0.00 0.10 0.00 67 1017.7
20260506164807 57 180 0.9 0.0 0.00 0.10 0.00 67 1017.7
20260506164707 57 180 7.8 0.0 0.00 0.10 0.00 67 1017.9
20260506164607 57 202 0.0 0.0 0.00 0.10 0.00 67 1017.9
20260506164507 57 202 0.0 0.0 0.00 0.10 0.00 67 1017.7
20260506164407 57 202 0.0 0.0 0.00 0.10 0.00 67 1017.5
20260506164307 57 225 3.5 0.0 0.00 0.10 0.00 67 1017.5
20260506164207 57 202 0.0 0.0 0.00 0.10 0.00 67 1017.5
20260506164107 57 202 11.3 0.0 0.00 0.10 0.00 67 1017.5
20260506164007 57 180 0.0 0.0 0.00 0.10 0.00 67 1017.5
20260506163907 57 180 3.5 0.0 0.00 0.10 0.00 67 1017.7
20260506163807 57 180 1.7 0.0 0.00 0.10 0.00 67 1017.7
20260506163707 57 225 0.0 0.0 0.00 0.10 0.00 67 1017.5
20260506163607 57 202 3.5 0.0 0.00 0.10 0.00 67 1017.5
20260506163507 57 202 0.0 0.0 0.00 0.10 0.00 67 1017.5
20260506163407 58 202 0.0 0.0 0.00 0.10 0.00 67 1017.5
20260506163307 58 202 4.3 0.0 0.00 0.10 0.00 67 1017.5
20260506163207 58 225 6.1 0.0 0.00 0.10 0.00 67 1017.5
20260506163107 58 202 1.7 0.0 0.00 0.10 0.00 67 1017.7
20260506163007 58 202 0.0 0.0 0.00 0.10 0.00 67 1017.5
20260506162907 58 202 0.0 0.0 0.00 0.10 0.00 67 1017.7
20260506162807 58 202 0.0 0.0 0.00 0.10 0.00 67 1017.5
20260506162707 58 202 3.5 0.0 0.00 0.10 0.00 67 1017.5
20260506162607 58 225 3.5 0.0 0.00 0.10 0.00 67 1017.5
20260506162507 58 225 1.7 0.0 0.00 0.10 0.00 67 1017.7
20260506162407 58 225 3.5 0.0 0.00 0.10 0.00 67 1017.5
20260506162307 58 202 0.0 0.0 0.00 0.10 0.00 67 1017.7
20260506162207 58 180 7.0 0.0 0.00 0.10 0.00 67 1017.5
20260506162107 58 180 4.3 0.0 0.00 0.10 0.00 67 1017.5
20260506162007 58 225 2.6 0.0 0.00 0.10 0.00 67 1017.5
20260506161907 58 225 8.7 0.0 0.00 0.10 0.00 67 1017.5
20260506161807 58 225 0.0 0.0 0.00 0.10 0.00 67 1017.5
20260506161707 58 202 0.0 0.0 0.00 0.10 0.00 67 1017.5
20260506161607 58 225 7.8 0.0 0.00 0.10 0.00 67 1017.7
20260506161507 58 180 4.3 0.0 0.00 0.10 0.00 67 1017.5
20260506161407 58 202 5.2 0.0 0.00 0.10 0.00 67 1017.7
20260506161307 58 225 0.0 0.0 0.00 0.10 0.00 67 1017.7
20260506161207 58 180 4.3 0.0 0.00 0.10 0.00 67 1017.7
20260506161107 58 180 11.3 0.0 0.00 0.10 0.00 67 1017.5
20260506161007 58 225 7.0 0.0 0.00 0.10 0.00 68 1017.5
20260506160907 58 247 6.1 0.0 0.00 0.10 0.00 68 1017.5
20260506160807 58 247 10.4 0.0 0.00 0.10 0.00 68 1017.7
20260506160707 58 225 7.8 0.0 0.00 0.10 0.00 68 1017.7
20260506160607 57 225 7.8 0.0 0.00 0.10 0.00 68 1017.7
20260506160507 57 202 5.2 0.0 0.00 0.10 0.00 68 1017.7
20260506160407 57 202 2.6 0.0 0.00 0.10 0.00 68 1017.7
20260506160307 57 225 10.4 0.0 0.00 0.10 0.00 68 1017.7
20260506160207 57 202 10.4 0.0 0.00 0.10 0.00 67 1017.7
20260506160107 57 202 2.6 0.0 0.00 0.10 0.00 67 1017.7
20260506160007 57 225 9.6 0.0 0.02 0.10 0.00 67 1017.7
20260506155907 57 225 0.0 0.0 0.02 0.10 0.00 67 1017.9
20260506155807 57 180 4.3 0.0 0.02 0.10 0.00 67 1017.9
20260506155707 57 180 0.0 0.0 0.02 0.10 0.00 67 1017.9
20260506155607 57 202 9.6 0.0 0.02 0.10 0.00 67 1017.9
20260506155507 57 202 7.8 0.0 0.02 0.10 0.00 67 1017.9
20260506155407 56 180 0.0 0.0 0.02 0.10 0.00 67 1017.9
20260506155307 56 225 4.3 0.0 0.02 0.10 0.00 67 1017.9
20260506155207 56 180 0.0 0.0 0.02 0.10 0.00 67 1018.0
20260506155107 56 180 0.0 0.0 0.02 0.10 0.00 67 1018.0
20260506155007 56 180 0.9 0.0 0.02 0.10 0.00 67 1018.0
20260506154907 56 180 1.7 0.0 0.02 0.10 0.00 67 1018.0
20260506154807 56 180 0.0 0.0 0.02 0.10 0.00 67 1018.0
20260506154707 56 180 0.0 0.0 0.02 0.10 0.00 67 1018.0
20260506154607 56 180 2.6 0.0 0.02 0.10 0.00 67 1018.0
20260506154507 56 157 0.0 0.0 0.02 0.10 0.00 67 1018.0
20260506154407 56 180 0.0 0.0 0.04 0.10 0.00 67 1017.9
20260506154307 56 180 2.6 0.0 0.04 0.10 0.00 67 1018.0
20260506154207 56 180 7.8 0.0 0.04 0.10 0.00 67 1018.0
20260506154107 56 157 6.1 0.0 0.04 0.10 0.00 67 1018.0
20260506154007 56 157 3.5 0.0 0.04 0.10 0.00 67 1018.0
20260506153907 55 180 11.3 0.0 0.04 0.10 0.00 67 1018.0
20260506153807 55 157 4.3 0.0 0.04 0.10 0.00 67 1018.0
20260506153707 55 157 2.6 0.0 0.04 0.10 0.00 67 1018.0
20260506153607 55 180 8.7 0.0 0.04 0.10 0.00 67 1018.0
20260506153507 55 157 2.6 0.0 0.04 0.10 0.00 67 1018.0
20260506153407 55 180 6.1 0.0 0.04 0.10 0.00 67 1018.0
20260506153307 55 135 5.2 0.0 0.04 0.10 0.00 67 1018.0
20260506153207 55 157 0.0 0.0 0.06 0.10 0.00 67 1018.0
20260506153107 55 157 0.0 0.0 0.06 0.10 0.00 67 1018.0
20260506153006 55 157 0.0 0.0 0.06 0.10 0.00 67 1018.0
20260506152907 55 157 0.0 0.0 0.06 0.10 0.00 67 1017.9
20260506152807 55 157 0.0 0.0 0.06 0.10 0.00 67 1018.0
20260506152707 55 180 2.6 0.0 0.06 0.10 0.00 67 1018.0
20260506152607 55 157 0.0 0.0 0.06 0.10 0.00 67 1018.0
20260506152507 55 157 0.0 0.0 0.06 0.10 0.00 67 1018.0
20260506152407 55 180 0.9 0.0 0.06 0.10 0.00 67 1018.0
20260506152307 55 157 0.0 0.0 0.06 0.10 0.00 67 1017.9
20260506152207 55 180 8.7 0.0 0.06 0.10 0.00 67 1018.0
20260506152107 55 157 0.0 0.0 0.06 0.10 0.00 67 1018.0
20260506152007 55 157 0.0 0.0 0.06 0.10 0.00 67 1018.0
20260506151907 55 180 0.0 0.0 0.06 0.10 0.00 67 1018.0
20260506151807 55 180 0.0 0.0 0.06 0.10 0.00 67 1017.9
20260506151707 55 157 0.0 0.0 0.06 0.10 0.00 67 1018.0
20260506151607 55 157 1.7 0.0 0.08 0.10 0.00 67 1017.9
20260506151507 55 157 1.7 0.0 0.08 0.10 0.00 67 1018.0
20260506151407 55 180 0.0 0.0 0.08 0.10 0.00 67 1017.9
20260506151306 55 180 0.0 0.0 0.08 0.10 0.00 67 1018.0
20260506151207 55 202 0.0 0.0 0.08 0.10 0.00 67 1017.9
20260506151106 55 180 0.0 0.0 0.08 0.10 0.00 67 1017.7
20260506151006 55 202 0.0 0.0 0.08 0.10 0.00 67 1017.9
20260506150907 55 225 0.0 0.0 0.08 0.10 0.00 67 1017.7
20260506150807 55 225 5.2 0.0 0.08 0.10 0.00 67 1017.7
20260506150706 55 225 1.7 0.0 0.08 0.10 0.00 67 1017.7
20260506150606 55 202 0.0 0.0 0.08 0.10 0.00 67 1017.7
20260506150507 55 225 9.6 0.0 0.08 0.10 0.00 66 1017.7
20260506150406 55 225 0.0 0.0 0.10 0.10 0.00 66 1017.7
20260506150307 55 225 12.2 0.0 0.10 0.10 0.00 66 1017.7
20260506150206 55 225 3.5 0.0 0.08 0.08 0.00 66 1017.7
20260506150106 55 247 0.0 0.0 0.08 0.08 0.00 66 1017.7
20260506150006 55 225 1.7 0.0 0.08 0.08 0.00 66 1017.7
20260506145907 55 247 0.0 0.0 0.08 0.08 0.00 66 1017.7
20260506145807 55 247 0.0 0.0 0.08 0.08 0.00 66 1017.7
20260506145706 55 247 0.0 0.0 0.08 0.08 0.00 66 1017.5
20260506145606 55 247 0.0 0.0 0.08 0.08 0.00 66 1017.7
20260506145506 55 247 0.0 0.0 0.08 0.08 0.00 66 1017.7
20260506145406 55 225 0.0 0.0 0.08 0.08 0.00 66 1017.5
20260506145307 55 225 0.0 0.0 0.08 0.08 0.00 66 1017.7
20260506145206 55 202 0.0 0.0 0.08 0.08 0.00 66 1017.7
20260506145106 55 225 0.0 0.0 0.08 0.08 0.00 66 1017.5
20260506145006 55 225 0.0 0.0 0.08 0.08 0.00 66 1017.7
20260506144906 55 202 0.0 0.0 0.08 0.08 0.00 66 1017.5
20260506144806 55 202 0.0 0.0 0.08 0.08 0.00 66 1017.5
20260506144706 55 202 0.0 0.0 0.06 0.06 0.00 66 1017.7
20260506144606 55 202 0.0 0.0 0.06 0.06 0.00 66 1017.7
20260506144506 55 225 4.3 0.0 0.06 0.06 0.00 66 1017.7
20260506144406 55 202 0.0 0.0 0.06 0.06 0.00 66 1017.7
20260506144306 55 202 0.0 0.0 0.06 0.06 0.00 66 1017.7
20260506144206 55 247 8.7 0.0 0.06 0.06 0.00 66 1017.7
20260506144106 55 202 10.4 0.0 0.06 0.06 0.00 66 1017.7
20260506144006 55 202 4.3 0.0 0.06 0.06 0.00 66 1017.7
20260506143906 55 180 5.2 0.0 0.06 0.06 0.00 66 1017.7
20260506143806 55 180 2.6 0.0 0.06 0.06 0.00 65 1017.7
20260506143706 55 202 3.5 0.0 0.06 0.06 0.00 65 1017.7
20260506143606 55 202 10.4 0.0 0.06 0.06 0.00 65 1017.7
20260506143506 55 202 4.3 0.0 0.06 0.06 0.00 65 1017.7
20260506143406 55 202 2.6 0.0 0.06 0.06 0.00 65 1017.7
20260506143306 55 225 8.7 0.0 0.04 0.06 0.00 65 1017.5
20260506143206 55 180 0.0 0.0 0.04 0.04 0.00 65 1017.5
20260506143106 55 202 8.7 0.0 0.04 0.04 0.00 65 1017.7
20260506143006 55 202 6.1 0.0 0.04 0.04 0.00 65 1017.5
20260506142906 55 202 9.6 0.0 0.04 0.04 0.00 65 1017.7
20260506142806 55 202 2.6 0.0 0.04 0.04 0.00 65 1017.7
20260506142706 55 180 0.0 0.0 0.04 0.04 0.00 65 1017.7
20260506142606 55 180 0.0 0.0 0.04 0.04 0.00 65 1017.9
20260506142506 55 180 12.2 0.0 0.04 0.04 0.00 64 1017.7
20260506142406 55 180 5.2 0.0 0.04 0.04 0.00 64 1017.7
20260506142306 55 180 3.5 0.0 0.04 0.04 0.00 64 1017.7
20260506142206 55 180 7.8 0.0 0.04 0.04 0.00 64 1017.7
20260506142106 56 180 0.0 0.0 0.04 0.04 0.00 64 1017.9
20260506142006 56 202 13.0 0.0 0.04 0.04 0.00 64 1017.7
20260506141906 56 157 10.4 0.0 0.02 0.02 0.00 64 1017.7
20260506141806 56 202 6.1 0.0 0.02 0.02 0.00 64 1017.7
20260506141706 56 202 8.7 0.0 0.02 0.02 0.00 64 1017.7
20260506141606 56 202 1.7 0.0 0.02 0.02 0.00 64 1017.7
20260506141506 56 202 12.2 0.0 0.02 0.02 0.00 64 1017.5
20260506141406 57 180 9.6 0.0 0.02 0.02 0.00 63 1017.7
20260506141306 57 180 13.9 0.0 0.02 0.02 0.00 63 1017.5
20260506141206 57 202 10.4 0.0 0.02 0.02 0.00 63 1017.5
20260506141106 57 157 16.5 0.0 0.02 0.02 0.00 63 1017.5
20260506141006 57 202 14.8 0.0 0.02 0.02 0.00 63 1017.5
20260506140906 57 202 18.2 0.0 0.02 0.02 0.00 63 1017.4
20260506140806 57 202 8.7 0.0 0.02 0.02 0.00 63 1017.4
20260506140706 57 202 22.6 0.0 0.02 0.02 0.00 63 1017.5
20260506140606 58 202 23.5 0.0 0.00 0.00 0.00 63 1017.2
20260506140506 58 202 13.9 0.0 0.00 0.00 0.00 62 1017.2
20260506140406 58 157 12.2 0.0 0.00 0.00 0.00 62 1017.4
20260506140306 58 180 16.5 0.0 0.00 0.00 0.00 62 1017.2
20260506140206 58 202 35.6 0.0 0.00 0.00 0.00 62 1017.0
20260506140106 58 202 15.6 0.0 0.00 0.00 0.00 62 1017.2
20260506140006 59 180 26.1 0.0 0.00 0.00 0.00 62 1017.2
20260506135906 59 180 13.9 0.0 0.00 0.00 0.00 62 1017.2
20260506135806 59 202 9.6 0.0 0.00 0.00 0.00 61 1017.0
20260506135706 59 157 7.8 0.0 0.00 0.00 0.00 61 1017.0
20260506135606 59 135 15.6 0.0 0.00 0.00 0.00 61 1017.0
20260506135506 59 202 2.6 0.0 0.00 0.00 0.00 61 1017.0
20260506135406 59 247 23.5 0.0 0.00 0.00 0.00 61 1017.0
20260506135306 60 225 8.7 0.0 0.00 0.00 0.00 61 1016.9
20260506135206 60 202 11.3 0.0 0.00 0.00 0.00 60 1016.7
20260506135106 60 225 13.9 0.0 0.00 0.00 0.00 60 1016.7
20260506135006 60 180 10.4 0.0 0.00 0.00 0.00 60 1016.7
20260506134906 60 225 15.6 0.0 0.00 0.00 0.00 60 1016.7
20260506134806 60 225 13.9 0.0 0.00 0.00 0.00 60 1016.7
20260506134706 60 202 19.1 0.0 0.00 0.00 0.00 60 1016.7
20260506134606 60 180 24.3 0.0 0.00 0.00 0.00 60 1016.7
20260506134506 60 225 23.5 0.0 0.00 0.00 0.00 59 1016.5
20260506134406 61 180 8.7 0.0 0.00 0.00 0.00 59 1016.5
20260506134306 61 180 1.7 0.0 0.00 0.00 0.00 59 1016.7
20260506134206 61 202 9.6 0.0 0.00 0.00 0.00 59 1016.5
20260506134106 61 225 10.4 0.0 0.00 0.00 0.00 59 1016.5
20260506134006 61 225 11.3 0.0 0.00 0.00 0.00 59 1016.5
20260506133906 61 202 15.6 0.0 0.00 0.00 0.00 58 1016.5
20260506133806 62 202 11.3 0.0 0.00 0.00 0.00 58 1016.5
20260506133706 62 202 13.9 0.0 0.00 0.00 0.00 58 1016.4
20260506133606 62 180 12.2 0.0 0.00 0.00 0.00 57 1016.4
20260506133506 62 202 10.4 0.0 0.00 0.00 0.00 57 1016.4
20260506133406 62 180 13.0 0.0 0.00 0.00 0.00 57 1016.5
20260506133306 63 202 15.6 0.0 0.00 0.00 0.00 57 1016.5
20260506133206 63 202 9.6 0.0 0.00 0.00 0.00 56 1016.4
20260506133106 63 202 16.5 0.0 0.00 0.00 0.00 56 1016.2
20260506133006 63 180 15.6 0.0 0.00 0.00 0.00 57 1016.4
20260506132906 64 180 9.6 0.0 0.00 0.00 0.00 56 1016.4
20260506132806 64 180 13.9 0.0 0.00 0.00 0.00 56 1016.4
20260506132706 64 202 9.6 0.0 0.00 0.00 0.00 56 1016.2
20260506132606 64 202 9.6 0.0 0.00 0.00 0.00 56 1016.2
20260506132506 64 180 8.7 0.0 0.00 0.00 0.00 56 1016.2
20260506132406 65 180 5.2 0.0 0.00 0.00 0.00 55 1016.2
20260506132307 65 225 11.3 0.0 0.00 0.00 0.00 55 1016.2
20260506132206 65 180 19.1 0.0 0.00 0.00 0.00 55 1016.2
20260506132106 65 180 15.6 0.0 0.00 0.00 0.00 55 1016.0
20260506132006 65 180 7.0 0.0 0.00 0.00 0.00 55 1016.0
20260506131906 66 180 5.2 0.0 0.00 0.00 0.00 54 1016.2
20260506131806 66 180 13.0 0.0 0.00 0.00 0.00 54 1016.0
20260506131706 66 202 6.1 0.0 0.00 0.00 0.00 54 1016.0
20260506131606 66 202 6.1 0.0 0.00 0.00 0.00 54 1016.0
20260506131506 66 180 7.0 0.0 0.00 0.00 0.00 54 1016.0
20260506131406 66 202 8.7 0.0 0.00 0.00 0.00 54 1016.0
20260506131306 67 202 4.3 0.0 0.00 0.00 0.00 53 1015.9
20260506131206 67 180 12.2 0.0 0.00 0.00 0.00 53 1015.9
20260506131106 67 202 8.7 0.0 0.00 0.00 0.00 53 1015.9
20260506131006 67 180 8.7 0.0 0.00 0.00 0.00 53 1015.9
20260506130906 67 180 8.7 0.0 0.00 0.00 0.00 53 1015.7
20260506130806 67 202 8.7 0.0 0.00 0.00 0.00 53 1015.7
20260506130706 68 202 7.0 0.0 0.00 0.00 0.00 52 1015.7
20260506130606 68 180 6.1 0.0 0.00 0.00 0.00 52 1015.7
20260506130506 68 180 7.8 0.0 0.00 0.00 0.00 52 1015.7
20260506130406 68 202 8.7 0.0 0.00 0.00 0.00 52 1015.5
20260506130306 68 180 5.2 0.0 0.00 0.00 0.00 52 1015.5
20260506130206 68 202 0.0 0.0 0.00 0.00 0.00 52 1015.5
20260506130106 68 202 1.7 0.0 0.00 0.00 0.00 52 1015.5
20260506130006 68 225 4.3 0.0 0.00 0.00 0.00 52 1015.5
20260506125906 68 180 10.4 0.0 0.00 0.00 0.00 52 1015.5
20260506125806 69 202 8.7 0.0 0.00 0.00 0.00 51 1015.5
20260506125706 69 202 6.1 0.0 0.00 0.00 0.00 51 1015.2
20260506125606 69 180 1.7 0.0 0.00 0.00 0.00 52 1015.4
20260506125506 69 225 11.3 0.0 0.00 0.00 0.00 52 1015.4
20260506125406 69 225 9.6 0.0 0.00 0.00 0.00 52 1015.5
20260506125306 69 225 14.8 0.0 0.00 0.00 0.00 52 1015.5
20260506125206 69 202 6.1 0.0 0.00 0.00 0.00 51 1015.5
20260506125106 69 202 10.4 0.0 0.00 0.00 0.00 51 1015.5
20260506125006 69 180 1.7 0.0 0.00 0.00 0.00 51 1015.4
20260506124906 69 157 1.7 0.0 0.00 0.00 0.00 51 1015.5
20260506124806 69 180 0.0 0.0 0.00 0.00 0.00 51 1015.5
20260506124706 69 202 0.0 0.0 0.00 0.00 0.00 51 1015.4
20260506124606 70 225 9.6 0.0 0.00 0.00 0.00 51 1015.4
20260506124506 70 247 8.7 0.0 0.00 0.00 0.00 51 1015.4
20260506124406 70 180 0.0 0.0 0.00 0.00 0.00 51 1015.4
20260506124306 70 180 0.0 0.0 0.00 0.00 0.00 51 1015.5
20260506124206 70 202 0.0 0.0 0.00 0.00 0.00 51 1015.4
20260506124106 70 180 4.3 0.0 0.00 0.00 0.00 50 1015.2
20260506124006 70 202 7.8 0.0 0.00 0.00 0.00 50 1015.4
20260506123906 70 202 2.6 0.0 0.00 0.00 0.00 50 1015.4
20260506123806 71 202 0.0 0.0 0.00 0.00 0.00 50 1015.2
20260506123706 71 180 5.2 0.0 0.00 0.00 0.00 50 1015.4
20260506123606 71 202 4.3 0.0 0.00 0.00 0.00 50 1015.2
20260506123506 71 225 12.2 0.0 0.00 0.00 0.00 50 1015.2
20260506123406 71 202 7.0 0.0 0.00 0.00 0.00 50 1015.2
20260506123306 72 225 10.4 0.0 0.00 0.00 0.00 50 1015.2
20260506123206 72 202 0.0 0.0 0.00 0.00 0.00 50 1015.2
20260506123106 72 202 4.3 0.0 0.00 0.00 0.00 50 1015.2
20260506123006 72 202 9.6 0.0 0.00 0.00 0.00 50 1015.4
20260506122906 73 225 4.3 0.0 0.00 0.00 0.00 50 1015.2
20260506122806 73 202 9.6 0.0 0.00 0.00 0.00 49 1015.2
20260506122706 73 225 4.3 0.0 0.00 0.00 0.00 49 1015.4
20260506122606 73 225 0.0 0.0 0.00 0.00 0.00 49 1015.2
20260506122506 73 202 6.1 0.0 0.00 0.00 0.00 49 1015.2
20260506122406 73 202 1.7 0.0 0.00 0.00 0.00 49 1015.2
20260506122306 73 202 0.0 0.0 0.00 0.00 0.00 49 1015.2
20260506122206 74 202 2.6 0.0 0.00 0.00 0.00 49 1015.2
20260506122106 74 202 8.7 0.0 0.00 0.00 0.00 49 1015.2
20260506122006 74 202 3.5 0.0 0.00 0.00 0.00 49 1015.2
20260506121906 74 202 4.3 0.0 0.00 0.00 0.00 49 1015.2
20260506121806 74 202 4.3 0.0 0.00 0.00 0.00 49 1015.2
20260506121706 75 247 3.5 0.0 0.00 0.00 0.00 49 1015.2
20260506121606 75 247 7.8 0.0 0.00 0.00 0.00 49 1015.2
20260506121506 75 202 3.5 0.0 0.00 0.00 0.00 48 1015.2
20260506121406 75 180 6.1 0.0 0.00 0.00 0.00 49 1015.2
20260506121306 75 180 0.0 0.0 0.00 0.00 0.00 49 1015.2
20260506121206 75 157 0.0 0.0 0.00 0.00 0.00 49 1015.2
20260506121106 75 135 5.2 0.0 0.00 0.00 0.00 49 1015.2
20260506121006 75 157 0.0 0.0 0.00 0.00 0.00 49 1015.2
20260506120906 75 157 0.0 0.0 0.00 0.00 0.00 49 1015.2
20260506120806 75 157 0.0 0.0 0.00 0.00 0.00 49 1015.2
20260506120706 75 157 0.0 0.0 0.00 0.00 0.00 49 1015.2
20260506120606 75 180 5.2 0.0 0.00 0.00 0.00 49 1015.2
20260506120506 75 180 9.6 0.0 0.00 0.00 0.00 49 1015.0
20260506120406 75 202 0.0 0.0 0.00 0.00 0.00 49 1015.0
20260506120306 75 180 0.0 0.0 0.00 0.00 0.00 49 1015.2
20260506120206 75 180 0.0 0.0 0.00 0.00 0.00 49 1015.2
20260506120106 75 180 0.0 0.0 0.00 0.00 0.00 50 1015.2
20260506120006 75 202 0.0 0.0 0.00 0.00 0.00 50 1015.0
20260506115906 75 180 0.9 0.0 0.00 0.00 0.00 50 1015.0
20260506115806 75 180 2.6 0.0 0.00 0.00 0.00 50 1015.0
20260506115706 75 202 4.3 0.0 0.00 0.00 0.00 50 1015.0
20260506115606 75 202 2.6 0.0 0.00 0.00 0.00 50 1015.2
20260506115506 75 180 0.0 0.0 0.00 0.00 0.00 50 1015.2
20260506115406 75 180 0.0 0.0 0.00 0.00 0.00 50 1015.2
20260506115307 75 180 0.0 0.0 0.00 0.00 0.00 50 1015.2
20260506115206 75 202 0.0 0.0 0.00 0.00 0.00 50 1015.2
20260506115106 75 202 2.6 0.0 0.00 0.00 0.00 50 1015.2
20260506115006 75 180 0.0 0.0 0.00 0.00 0.00 51 1015.0
20260506114906 75 180 2.6 0.0 0.00 0.00 0.00 51 1015.2
20260506114806 74 157 0.0 0.0 0.00 0.00 0.00 51 1015.0
20260506114706 74 180 5.2 0.0 0.00 0.00 0.00 51 1015.0
20260506114606 74 202 10.4 0.0 0.00 0.00 0.00 51 1015.0
20260506114506 74 157 4.3 0.0 0.00 0.00 0.00 51 1015.0
20260506114406 74 180 0.0 0.0 0.00 0.00 0.00 51 1015.2
20260506114306 74 180 159.0 0.0 0.00 0.00 0.00 51 1015.0
20260506114206 74 180 0.0 0.0 0.00 0.00 0.00 51 1015.0
20260506114106 74 157 0.0 0.0 0.00 0.00 0.00 51 1015.0
20260506114006 74 157 0.0 0.0 0.00 0.00 0.00 51 1015.0
20260506113906 74 157 0.0 0.0 0.00 0.00 0.00 51 1015.2
20260506113806 74 135 0.0 0.0 0.00 0.00 0.00 51 1015.0
20260506113706 74 135 0.0 0.0 0.00 0.00 0.00 51 1015.0
20260506113606 74 157 0.0 0.0 0.00 0.00 0.00 52 1015.0
20260506113506 74 157 0.0 0.0 0.00 0.00 0.00 52 1015.0
20260506113406 73 135 0.0 0.0 0.00 0.00 0.00 52 1015.2
20260506113306 73 157 0.0 0.0 0.00 0.00 0.00 52 1015.0
20260506113206 73 157 0.0 0.0 0.00 0.00 0.00 52 1015.2
20260506113106 73 135 0.0 0.0 0.00 0.00 0.00 52 1015.2
20260506113006 73 157 0.0 0.0 0.00 0.00 0.00 52 1015.2
20260506112906 73 180 0.0 0.0 0.00 0.00 0.00 52 1015.2
20260506112806 73 180 0.0 0.0 0.00 0.00 0.00 52 1015.2
20260506112706 73 157 0.0 0.0 0.00 0.00 0.00 52 1015.2
20260506112606 73 157 0.0 0.0 0.00 0.00 0.00 52 1015.2
20260506112506 73 180 0.9 0.0 0.00 0.00 0.00 52 1015.2
20260506112406 73 180 0.0 0.0 0.00 0.00 0.00 52 1015.2
20260506112306 73 180 0.0 0.0 0.00 0.00 0.00 53 1015.2
20260506112206 73 157 0.0 0.0 0.00 0.00 0.00 53 1015.2
20260506112106 73 157 7.8 0.0 0.00 0.00 0.00 53 1015.4
20260506112006 73 157 4.3 0.0 0.00 0.00 0.00 53 1015.2
20260506111906 73 157 0.0 0.0 0.00 0.00 0.00 53 1015.2
20260506111806 73 157 0.0 0.0 0.00 0.00 0.00 53 1015.2
20260506111706 73 157 0.0 0.0 0.00 0.00 0.00 53 1015.2
20260506111606 73 157 0.0 0.0 0.00 0.00 0.00 53 1015.2
20260506111506 73 157 0.0 0.0 0.00 0.00 0.00 53 1015.2
20260506111406 73 157 0.0 0.0 0.00 0.00 0.00 53 1015.2
20260506111306 73 135 0.0 0.0 0.00 0.00 0.00 53 1015.2
20260506111206 73 157 0.0 0.0 0.00 0.00 0.00 53 1015.2
20260506111106 73 180 0.0 0.0 0.00 0.00 0.00 53 1015.2
20260506111006 73 180 0.0 0.0 0.00 0.00 0.00 53 1015.2
20260506110906 73 180 0.0 0.0 0.00 0.00 0.00 53 1015.2
20260506110806 73 180 0.0 0.0 0.00 0.00 0.00 53 1015.2
20260506110706 73 180 0.0 0.0 0.00 0.00 0.00 54 1015.2
20260506110606 73 180 0.0 0.0 0.00 0.00 0.00 54 1015.2
20260506110506 73 180 0.0 0.0 0.00 0.00 0.00 54 1015.2
20260506110406 73 157 0.0 0.0 0.00 0.00 0.00 54 1015.2
20260506110306 73 180 0.0 0.0 0.00 0.00 0.00 54 1015.2
20260506110206 73 157 0.0 0.0 0.00 0.00 0.00 54 1015.4
20260506110106 73 180 0.0 0.0 0.00 0.00 0.00 55 1015.5
20260506110006 73 180 0.0 0.0 0.00 0.02 0.00 55 1015.5
20260506105906 73 180 0.0 0.0 0.00 0.02 0.00 55 1015.4
20260506105806 73 180 0.0 0.0 0.00 0.02 0.00 55 1015.5
20260506105706 73 180 0.0 0.0 0.00 0.02 0.00 55 1015.4
20260506105606 73 180 0.0 0.0 0.00 0.02 0.00 55 1015.4
20260506105506 73 180 0.0 0.0 0.00 0.02 0.00 55 1015.5
20260506105406 73 180 0.0 0.0 0.00 0.02 0.00 55 1015.5
20260506105306 73 180 0.0 0.0 0.00 0.02 0.00 55 1015.5
20260506105206 73 180 0.0 0.0 0.00 0.02 0.00 55 1015.5
20260506105106 73 180 0.0 0.0 0.00 0.02 0.00 56 1015.5
20260506105006 73 180 0.0 0.0 0.00 0.02 0.00 56 1015.7
20260506104906 73 180 0.0 0.0 0.00 0.02 0.00 56 1015.7
20260506104806 73 180 0.0 0.0 0.00 0.02 0.00 56 1015.7
20260506104706 73 180 0.0 0.0 0.00 0.02 0.00 56 1015.7
20260506104606 73 180 0.0 0.0 0.00 0.02 0.00 56 1015.5
20260506104506 73 180 0.0 0.0 0.00 0.02 0.00 56 1015.5
20260506104406 73 180 0.0 0.0 0.00 0.02 0.00 56 1015.7
20260506104306 73 180 0.0 0.0 0.00 0.02 0.00 56 1015.5
20260506104206 73 180 0.0 0.0 0.00 0.02 0.00 56 1015.7
20260506104106 73 180 0.0 0.0 0.00 0.02 0.00 56 1015.5
20260506104006 73 180 0.0 0.0 0.00 0.02 0.00 56 1015.5
20260506103906 73 180 0.0 0.0 0.00 0.02 0.00 56 1015.7
20260506103806 73 180 0.0 0.0 0.00 0.02 0.00 57 1015.7
20260506103706 73 225 0.0 0.0 0.00 0.02 0.00 57 1015.7
20260506103606 73 225 0.0 0.0 0.00 0.02 0.00 57 1015.7
20260506103506 73 202 0.0 0.0 0.00 0.02 0.00 57 1015.7
20260506103406 73 202 0.0 0.0 0.00 0.02 0.00 57 1015.9
20260506103306 73 180 0.0 0.0 0.00 0.02 0.00 57 1015.9
20260506103206 73 180 0.0 0.0 0.00 0.02 0.00 58 1015.9
20260506103106 72 180 0.0 0.0 0.00 0.02 0.00 58 1015.7
20260506103006 72 180 0.0 0.0 0.00 0.02 0.00 58 1015.7
20260506102906 72 202 0.0 0.0 0.00 0.02 0.00 58 1015.7
20260506102806 72 202 0.0 0.0 0.00 0.02 0.00 58 1015.7
20260506102706 72 202 0.0 0.0 0.00 0.02 0.00 58 1015.7
20260506102606 72 180 0.0 0.0 0.00 0.02 0.00 58 1015.7
20260506102506 72 202 0.0 0.0 0.00 0.02 0.00 58 1015.7
20260506102406 72 202 0.0 0.0 0.00 0.02 0.00 59 1015.7
20260506102306 71 202 0.0 0.0 0.00 0.02 0.00 59 1015.7
20260506102206 71 202 0.0 0.0 0.00 0.02 0.00 59 1015.7
20260506102106 71 202 0.0 0.0 0.00 0.02 0.00 59 1015.7
20260506102006 71 180 0.0 0.0 0.00 0.02 0.00 59 1015.7
20260506101906 71 180 0.0 0.0 0.00 0.02 0.00 59 1015.7
20260506101806 71 202 0.0 0.0 0.00 0.02 0.00 60 1015.9
20260506101706 71 202 0.0 0.0 0.00 0.02 0.00 60 1015.7
20260506101606 71 202 0.0 0.0 0.00 0.02 0.00 60 1015.7
20260506101506 71 247 0.0 0.0 0.00 0.02 0.00 60 1015.7
20260506101406 70 202 0.0 0.0 0.00 0.02 0.00 60 1015.7
20260506101306 70 202 0.0 0.0 0.00 0.02 0.00 60 1015.7
20260506101206 70 202 0.0 0.0 0.00 0.02 0.00 60 1015.9
20260506101106 70 202 0.0 0.0 0.00 0.02 0.00 60 1015.7
20260506101006 70 202 0.0 0.0 0.00 0.02 0.00 60 1015.9
20260506100906 70 202 0.0 0.0 0.00 0.02 0.00 61 1015.9
20260506100806 69 180 0.0 0.0 0.00 0.02 0.00 61 1015.9
20260506100706 69 202 0.0 0.0 0.00 0.02 0.00 61 1015.9
20260506100606 69 202 0.0 0.0 0.00 0.02 0.00 61 1016.0
20260506100506 69 225 0.0 0.0 0.00 0.02 0.00 61 1016.0
20260506100406 69 202 0.0 0.0 0.00 0.02 0.00 61 1015.9
20260506100306 69 202 0.0 0.0 0.00 0.02 0.00 61 1015.9
20260506100206 68 202 0.0 0.0 0.00 0.02 0.00 61 1016.0
20260506100106 68 180 0.0 0.0 0.00 0.02 0.00 61 1016.0
20260506100006 68 180 0.0 0.0 0.00 0.02 0.00 61 1016.0
20260506095906 68 180 0.0 0.0 0.00 0.02 0.00 61 1016.0
20260506095806 68 180 0.0 0.0 0.00 0.02 0.00 62 1016.0
20260506095706 68 202 0.0 0.0 0.00 0.02 0.00 61 1016.0
20260506095606 68 180 0.0 0.0 0.00 0.02 0.00 62 1016.0
20260506095506 68 202 0.0 0.0 0.00 0.02 0.00 62 1016.0
20260506095406 68 202 0.0 0.0 0.00 0.02 0.00 62 1015.9
20260506095306 68 202 0.9 0.0 0.00 0.02 0.00 62 1015.9
20260506095206 68 202 0.0 0.0 0.00 0.02 0.00 62 1016.0
20260506095106 68 202 0.0 0.0 0.00 0.02 0.00 62 1016.0
20260506095006 68 202 0.0 0.0 0.00 0.02 0.00 62 1015.9
20260506094906 68 202 0.0 0.0 0.00 0.02 0.00 62 1016.0
20260506094806 68 202 0.0 0.0 0.00 0.02 0.00 62 1015.9
20260506094706 68 202 0.0 0.0 0.00 0.02 0.00 62 1015.9
20260506094606 68 202 0.0 0.0 0.00 0.02 0.00 62 1016.0
20260506094506 68 180 0.0 0.0 0.00 0.02 0.00 62 1016.0
20260506094406 68 180 0.0 0.0 0.00 0.02 0.00 62 1016.0
20260506094306 69 180 0.0 0.0 0.00 0.02 0.00 62 1015.9
20260506094206 69 180 0.0 0.0 0.00 0.02 0.00 62 1015.9
20260506094106 69 180 0.0 0.0 0.00 0.02 0.00 62 1015.9
20260506094006 69 180 0.0 0.0 0.00 0.02 0.00 62 1016.0
20260506093906 69 180 0.0 0.0 0.00 0.02 0.00 62 1016.0
20260506093806 69 180 0.0 0.0 0.00 0.02 0.00 62 1016.0
20260506093706 69 180 0.0 0.0 0.00 0.02 0.00 62 1016.0
20260506093606 69 202 0.0 0.0 0.00 0.02 0.00 62 1016.0
20260506093506 69 180 0.0 0.0 0.00 0.02 0.00 62 1016.0
20260506093406 69 180 0.0 0.0 0.00 0.02 0.00 62 1016.0
20260506093306 69 180 0.0 0.0 0.00 0.02 0.00 62 1016.0
20260506093206 69 180 0.0 0.0 0.00 0.02 0.00 62 1016.0
20260506093106 69 180 2.6 0.0 0.00 0.02 0.00 63 1016.0
20260506093006 69 180 1.7 0.0 0.00 0.02 0.00 63 1016.0
20260506092906 69 202 0.0 0.0 0.00 0.02 0.00 63 1016.0
20260506092806 69 202 1.7 0.0 0.00 0.02 0.00 63 1016.0
20260506092706 69 202 1.7 0.0 0.00 0.02 0.00 63 1016.0
20260506092606 69 202 0.0 0.0 0.00 0.02 0.00 63 1016.2
20260506092506 69 180 0.0 0.0 0.00 0.02 0.00 63 1016.0
20260506092406 69 202 0.0 0.0 0.00 0.02 0.00 63 1016.0
20260506092306 69 202 0.0 0.0 0.00 0.02 0.00 63 1016.0
20260506092206 69 202 0.0 0.0 0.00 0.02 0.00 64 1016.0
20260506092106 69 202 0.0 0.0 0.00 0.02 0.00 64 1016.0
20260506092006 69 180 0.0 0.0 0.00 0.02 0.00 64 1015.9
20260506091906 69 180 0.0 0.0 0.00 0.02 0.00 64 1016.0
20260506091806 69 202 0.0 0.0 0.00 0.02 0.00 64 1016.0
20260506091706 69 202 0.0 0.0 0.00 0.02 0.00 64 1015.9
20260506091606 69 202 0.0 0.0 0.00 0.02 0.00 64 1016.0
20260506091506 69 202 0.0 0.0 0.00 0.02 0.00 64 1016.0
20260506091406 69 202 0.0 0.0 0.00 0.02 0.00 65 1015.9
20260506091306 69 202 0.0 0.0 0.00 0.02 0.00 65 1016.0
20260506091206 69 202 0.0 0.0 0.00 0.02 0.00 65 1016.0
20260506091106 69 202 0.0 0.0 0.00 0.02 0.00 65 1016.0
20260506091006 69 202 0.0 0.0 0.00 0.02 0.00 65 1016.0
20260506090906 69 202 0.0 0.0 0.00 0.02 0.00 65 1016.0
20260506090806 69 202 0.0 0.0 0.00 0.02 0.00 65 1016.0
20260506090706 69 202 0.0 0.0 0.00 0.02 0.00 65 1015.9
20260506090606 69 202 0.0 0.0 0.00 0.02 0.00 66 1016.0
20260506090506 69 202 0.0 0.0 0.00 0.02 0.00 66 1015.9
20260506090406 68 202 0.0 0.0 0.00 0.02 0.00 66 1016.0
20260506090306 68 202 0.0 0.0 0.00 0.02 0.00 66 1016.0
20260506090206 68 202 0.0 0.0 0.00 0.02 0.00 66 1016.0
20260506090106 68 202 0.0 0.0 0.00 0.02 0.00 67 1016.0
20260506090006 68 202 0.0 0.0 0.00 0.02 0.00 67 1016.0
20260506085906 68 180 0.0 0.0 0.00 0.02 0.00 67 1016.0
20260506085806 68 180 0.0 0.0 0.00 0.02 0.00 67 1016.0
20260506085706 67 180 0.0 0.0 0.00 0.02 0.00 67 1016.0
20260506085606 67 180 0.0 0.0 0.00 0.02 0.00 68 1016.0
20260506085506 67 180 0.0 0.0 0.00 0.02 0.00 68 1016.0
20260506085406 67 180 0.0 0.0 0.00 0.02 0.00 68 1016.0
20260506085306 67 180 0.0 0.0 0.00 0.02 0.00 68 1016.0
20260506085206 67 180 0.0 0.0 0.00 0.02 0.00 68 1016.0
20260506085106 67 180 0.0 0.0 0.00 0.02 0.00 68 1016.0
20260506085006 67 180 0.0 0.0 0.00 0.02 0.00 68 1016.0
20260506084906 66 180 0.0 0.0 0.00 0.02 0.00 68 1016.2
20260506084806 66 180 0.0 0.0 0.00 0.02 0.00 68 1016.0
20260506084706 66 180 0.0 0.0 0.00 0.02 0.00 68 1016.0
20260506084606 66 180 0.0 0.0 0.00 0.02 0.00 69 1016.0
20260506084506 66 180 0.0 0.0 0.00 0.02 0.00 69 1016.0
20260506084406 66 180 0.0 0.0 0.00 0.02 0.00 69 1016.0
20260506084306 66 180 0.0 0.0 0.00 0.02 0.00 69 1016.0
20260506084206 66 180 0.0 0.0 0.00 0.02 0.00 69 1016.0
20260506084106 66 180 0.0 0.0 0.00 0.02 0.00 69 1016.0
20260506084006 66 180 0.0 0.0 0.00 0.02 0.00 69 1016.2
20260506083906 65 180 0.0 0.0 0.00 0.02 0.00 70 1016.0
20260506083806 65 225 0.0 0.0 0.00 0.02 0.00 70 1016.0
20260506083706 65 247 0.0 0.0 0.00 0.02 0.00 70 1016.0
20260506083606 65 247 0.0 0.0 0.00 0.02 0.00 70 1016.0
20260506083506 65 247 0.0 0.0 0.00 0.02 0.00 70 1016.0
20260506083406 65 247 0.0 0.0 0.00 0.02 0.00 70 1016.0
20260506083306 64 247 0.0 0.0 0.00 0.02 0.00 70 1016.0
20260506083206 64 247 0.0 0.0 0.00 0.02 0.00 70 1016.0
20260506083106 64 247 0.0 0.0 0.00 0.02 0.00 70 1016.0
20260506083006 64 247 0.0 0.0 0.00 0.02 0.00 70 1016.0
20260506082906 64 247 0.0 0.0 0.00 0.02 0.00 70 1016.0
20260506082806 64 247 0.0 0.0 0.00 0.02 0.00 71 1016.0
20260506082706 64 247 0.0 0.0 0.00 0.02 0.00 71 1016.0
20260506082606 64 247 0.0 0.0 0.00 0.02 0.00 71 1016.0
20260506082506 64 247 0.0 0.0 0.00 0.02 0.00 71 1016.0
20260506082406 63 247 0.0 0.0 0.00 0.02 0.00 71 1016.0
20260506082306 63 247 0.0 0.0 0.00 0.02 0.00 71 1015.9
20260506082206 63 247 0.0 0.0 0.00 0.02 0.00 71 1016.0
20260506082106 63 247 0.0 0.0 0.00 0.02 0.00 71 1016.0
20260506082006 63 247 0.0 0.0 0.00 0.02 0.00 71 1015.9
20260506081906 63 247 0.0 0.0 0.00 0.02 0.00 71 1016.0
20260506081806 63 247 0.0 0.0 0.00 0.02 0.00 71 1016.0
20260506081706 62 247 0.0 0.0 0.00 0.02 0.00 72 1016.0
20260506081606 62 247 0.0 0.0 0.00 0.02 0.00 72 1016.0
20260506081506 62 247 0.0 0.0 0.00 0.02 0.00 72 1016.0
20260506081406 62 247 0.0 0.0 0.00 0.02 0.00 72 1016.0
20260506081306 62 247 0.0 0.0 0.00 0.02 0.00 72 1016.0
20260506081206 62 247 0.0 0.0 0.00 0.02 0.00 72 1016.0
20260506081106 62 247 0.0 0.0 0.00 0.02 0.00 72 1016.0
20260506081006 62 247 0.0 0.0 0.00 0.02 0.00 72 1016.0
20260506080906 62 247 0.0 0.0 0.00 0.02 0.00 72 1016.0
20260506080806 62 247 0.0 0.0 0.00 0.02 0.00 72 1016.0
20260506080706 61 247 0.0 0.0 0.00 0.02 0.00 72 1016.0
20260506080606 61 247 0.0 0.0 0.00 0.02 0.00 72 1015.9
20260506080506 61 247 0.0 0.0 0.00 0.02 0.00 72 1015.9
20260506080406 61 247 0.0 0.0 0.00 0.02 0.00 72 1016.0
20260506080306 61 247 0.0 0.0 0.00 0.02 0.00 73 1016.0
20260506080206 61 247 0.0 0.0 0.00 0.02 0.00 73 1016.0
20260506080106 61 247 0.0 0.0 0.00 0.02 0.00 73 1016.0
20260506073506 58 202 0.0 0.0 0.00 0.02 0.00 74 1016.0
20260506073406 58 202 0.0 0.0 0.00 0.02 0.00 74 1016.0
20260506073306 58 202 0.0 0.0 0.00 0.02 0.00 74 1016.0
20260506073206 58 202 0.0 0.0 0.00 0.02 0.00 75 1015.9
20260506073106 58 202 0.0 0.0 0.00 0.02 0.00 75 1016.0
20260506073006 58 202 0.0 0.0 0.00 0.02 0.00 75 1016.0
20260506072906 58 202 0.0 0.0 0.00 0.02 0.00 75 1016.0
20260506072806 58 202 0.0 0.0 0.00 0.02 0.00 75 1016.0
20260506072706 58 202 0.0 0.0 0.00 0.02 0.00 75 1016.0
20260506072606 58 202 0.0 0.0 0.00 0.02 0.00 75 1016.0
20260506072506 58 202 0.0 0.0 0.00 0.02 0.00 75 1016.0
20260506072406 58 202 0.0 0.0 0.00 0.02 0.00 74 1016.0
20260506072306 58 202 0.0 0.0 0.00 0.02 0.00 74 1016.0
20260506072206 58 202 0.0 0.0 0.00 0.02 0.00 74 1016.2
20260506072106 58 202 0.0 0.0 0.00 0.02 0.00 74 1016.0
20260506072006 58 202 0.0 0.0 0.00 0.02 0.00 74 1016.0
20260506071906 57 202 159.0 0.0 0.00 0.02 0.00 75 1016.0
20260506071806 57 202 0.0 0.0 0.00 0.02 0.00 75 1016.0
20260506071706 57 202 0.0 0.0 0.00 0.02 0.00 75 1016.0
20260506071606 57 202 0.0 0.0 0.00 0.02 0.00 75 1016.2
20260506071506 57 202 0.0 0.0 0.00 0.02 0.00 75 1016.0
20260506071406 57 202 0.0 0.0 0.00 0.02 0.00 75 1016.2
20260506071306 57 202 0.0 0.0 0.00 0.02 0.00 75 1016.2
20260506071206 57 202 0.0 0.0 0.00 0.02 0.00 75 1016.2
20260506071106 57 202 0.0 0.0 0.00 0.02 0.00 75 1016.2
20260506071006 57 202 0.0 0.0 0.00 0.02 0.00 75 1016.2
20260506070906 57 202 0.0 0.0 0.00 0.02 0.00 75 1016.2
20260506070806 57 202 0.0 0.0 0.00 0.02 0.00 75 1016.2
20260506070706 57 202 0.0 0.0 0.00 0.02 0.00 75 1016.2
20260506070606 57 202 0.0 0.0 0.00 0.02 0.00 75 1016.0
20260506070506 57 202 0.0 0.0 0.00 0.02 0.00 75 1016.2
20260506070406 57 202 0.0 0.0 0.00 0.02 0.00 75 1016.0
20260506070306 57 202 0.0 0.0 0.00 0.02 0.00 75 1016.2
20260506070206 57 202 0.0 0.0 0.00 0.02 0.00 75 1016.2
20260506070106 57 202 0.0 0.0 0.00 0.02 0.00 75 1016.2
20260506062505 54 202 0.0 0.0 0.00 0.02 0.00 77 1016.4
20260506062405 54 202 0.0 0.0 0.00 0.02 0.00 77 1016.4
20260506062306 54 202 0.0 0.0 0.00 0.02 0.00 76 1016.4
20260506062206 53 202 0.0 0.0 0.00 0.02 0.00 76 1016.4
20260506062105 53 202 0.0 0.0 0.00 0.02 0.00 76 1016.4
20260506062005 53 202 0.0 0.0 0.00 0.02 0.00 76 1016.2
20260506061906 53 202 0.0 0.0 0.00 0.02 0.00 76 1016.2
20260506061805 53 202 0.0 0.0 0.00 0.02 0.00 77 1016.2
20260506061706 53 202 0.0 0.0 0.00 0.02 0.00 77 1016.2
20260506061605 53 202 0.0 0.0 0.00 0.02 0.00 77 1016.2
20260506061505 52 202 0.0 0.0 0.00 0.02 0.00 77 1016.2
20260506061406 52 202 0.0 0.0 0.00 0.02 0.00 77 1016.2
20260506061306 52 202 0.0 0.0 0.00 0.02 0.00 77 1016.2
20260506061206 52 202 0.0 0.0 0.00 0.02 0.00 77 1016.2
20260506061105 51 202 0.0 0.0 0.00 0.02 0.00 77 1016.2
20260506061006 51 202 0.0 0.0 0.00 0.02 0.00 77 1016.2
20260506060905 51 202 0.0 0.0 0.00 0.02 0.00 77 1016.0
20260506060806 51 202 0.0 0.0 0.00 0.02 0.00 77 1016.2
20260506060705 51 202 0.0 0.0 0.00 0.02 0.00 77 1016.2
20260506060605 51 202 0.0 0.0 0.00 0.02 0.00 77 1016.2
20260506060505 51 202 0.0 0.0 0.00 0.02 0.00 77 1016.2
20260506060406 50 202 0.0 0.0 0.00 0.02 0.00 77 1016.2
20260506060305 50 202 0.0 0.0 0.00 0.02 0.00 77 1016.2
20260506060205 50 202 0.0 0.0 0.00 0.02 0.00 77 1016.2
20260506060106 50 202 0.0 0.0 0.00 0.02 0.00 77 1016.2
20260506051405 47 202 0.0 0.0 0.00 0.02 0.00 78 1016.4
20260506051305 47 202 0.0 0.0 0.00 0.02 0.00 78 1016.4
20260506051205 47 202 0.0 0.0 0.00 0.02 0.00 78 1016.4
20260506051105 47 202 0.0 0.0 0.00 0.02 0.00 78 1016.4
20260506051005 47 202 0.0 0.0 0.00 0.02 0.00 78 1016.4
20260506050905 47 202 0.0 0.0 0.00 0.02 0.00 78 1016.5
20260506050805 47 202 0.0 0.0 0.00 0.02 0.00 78 1016.4
20260506050705 47 202 0.0 0.0 0.00 0.02 0.00 78 1016.4
20260506050605 47 202 0.0 0.0 0.00 0.02 0.00 78 1016.5
20260506050505 47 202 0.0 0.0 0.00 0.02 0.00 78 1016.4
20260506050405 47 202 0.0 0.0 0.00 0.02 0.00 78 1016.5
20260506050305 47 202 0.0 0.0 0.00 0.02 0.00 78 1016.4
20260506050205 46 202 0.0 0.0 0.00 0.02 0.00 78 1016.4
20260506050105 47 202 0.0 0.0 0.00 0.02 0.00 78 1016.5
20260506045105 46 202 0.0 0.0 0.00 0.02 0.00 78 1016.4
20260506045005 46 202 0.0 0.0 0.00 0.02 0.00 78 1016.4
20260506044905 46 202 0.0 0.0 0.00 0.02 0.00 78 1016.4
20260506044805 46 202 0.0 0.0 0.00 0.02 0.00 78 1016.4
20260506044705 46 202 0.0 0.0 0.00 0.02 0.00 78 1016.4
20260506044605 46 202 0.0 0.0 0.00 0.02 0.00 78 1016.5
20260506044505 46 202 0.0 0.0 0.00 0.02 0.00 78 1016.4
20260506044405 46 202 0.0 0.0 0.00 0.02 0.00 78 1016.5
20260506044305 46 202 0.0 0.0 0.00 0.02 0.00 78 1016.5
20260506044205 46 202 0.0 0.0 0.00 0.02 0.00 78 1016.5
20260506044105 46 202 0.0 0.0 0.00 0.02 0.00 78 1016.5
20260506044005 45 202 0.0 0.0 0.00 0.02 0.00 78 1016.5
20260506043905 45 202 0.0 0.0 0.00 0.02 0.00 78 1016.5
20260506043805 45 202 0.0 0.0 0.00 0.02 0.00 78 1016.5
20260506043706 45 202 0.0 0.0 0.00 0.02 0.00 78 1016.5
20260506043605 45 202 0.0 0.0 0.00 0.02 0.00 78 1016.5
20260506043505 45 202 0.0 0.0 0.00 0.02 0.00 78 1016.5
20260506043405 45 202 0.0 0.0 0.00 0.02 0.00 78 1016.5
20260506043305 45 202 0.0 0.0 0.00 0.02 0.00 78 1016.5
20260506043205 45 202 0.0 0.0 0.00 0.02 0.00 78 1016.5
20260506043105 45 202 0.0 0.0 0.00 0.02 0.00 78 1016.7
20260506043005 44 202 0.0 0.0 0.00 0.02 0.00 78 1016.5
20260506042905 44 202 0.0 0.0 0.00 0.02 0.00 78 1016.5
20260506042805 44 202 0.0 0.0 0.00 0.02 0.00 78 1016.7
20260506042705 44 202 0.0 0.0 0.00 0.02 0.00 78 1016.7
20260506042605 44 202 0.0 0.0 0.00 0.02 0.00 78 1016.7
20260506042505 44 202 0.0 0.0 0.00 0.02 0.00 78 1016.7
20260506042405 44 202 0.0 0.0 0.00 0.02 0.00 78 1016.7
20260506042305 44 202 0.0 0.0 0.00 0.02 0.00 78 1016.7
20260506042205 44 202 0.0 0.0 0.00 0.02 0.00 78 1016.7
20260506042105 44 202 0.0 0.0 0.00 0.02 0.00 78 1016.7
20260506042005 44 202 0.0 0.0 0.00 0.02 0.00 78 1016.7
20260506041905 44 202 0.0 0.0 0.00 0.02 0.00 78 1016.7
20260506041805 44 202 0.0 0.0 0.00 0.02 0.00 78 1016.7
20260506041705 44 202 0.0 0.0 0.00 0.02 0.00 78 1016.7
20260506041605 44 202 0.0 0.0 0.00 0.02 0.00 78 1016.7
20260506041505 44 202 0.0 0.0 0.00 0.02 0.00 78 1016.7
20260506041405 44 202 0.0 0.0 0.00 0.02 0.00 78 1016.7
20260506041305 43 202 0.0 0.0 0.00 0.02 0.00 78 1016.7
20260506041205 43 202 0.0 0.0 0.00 0.02 0.00 78 1016.9
20260506041105 43 202 0.0 0.0 0.00 0.02 0.00 78 1016.9
20260506041005 43 202 0.0 0.0 0.00 0.02 0.00 78 1016.7
20260506040905 43 202 0.0 0.0 0.00 0.02 0.00 78 1016.7
20260506040805 43 202 0.0 0.0 0.00 0.02 0.00 78 1016.7
20260506040705 43 202 0.0 0.0 0.00 0.02 0.00 78 1016.9
20260506040605 43 202 0.0 0.0 0.00 0.02 0.00 78 1016.7
20260506040505 43 202 0.0 0.0 0.00 0.02 0.00 78 1016.7
20260506040405 43 202 0.0 0.0 0.00 0.02 0.00 78 1016.7
20260506040305 43 202 0.0 0.0 0.00 0.02 0.00 78 1016.7
20260506040205 43 202 0.0 0.0 0.00 0.02 0.00 78 1016.7
20260506040105 43 202 0.0 0.0 0.00 0.02 0.00 78 1016.7
20260506040005 43 202 0.0 0.0 0.00 0.02 0.00 78 1016.7
20260506035905 43 202 0.0 0.0 0.00 0.02 0.00 78 1016.7
20260506035805 43 202 0.0 0.0 0.00 0.02 0.00 78 1016.7
20260506035705 43 202 0.0 0.0 0.00 0.02 0.00 78 1016.7
20260506035605 43 202 0.0 0.0 0.00 0.02 0.00 78 1017.0
20260506035505 44 202 0.0 0.0 0.00 0.02 0.00 78 1016.9
20260506035405 44 202 0.0 0.0 0.00 0.02 0.00 78 1017.0
20260506035306 44 202 0.0 0.0 0.00 0.02 0.00 78 1017.0
20260506035205 44 202 0.0 0.0 0.00 0.02 0.00 78 1017.0
20260506035105 44 202 0.0 0.0 0.00 0.02 0.00 78 1017.0
20260506035005 44 202 0.0 0.0 0.00 0.02 0.00 78 1017.0
20260506034905 44 202 0.0 0.0 0.00 0.02 0.00 78 1017.0
20260506034805 44 202 0.0 0.0 0.00 0.02 0.00 78 1017.0
20260506034705 44 202 0.0 0.0 0.00 0.02 0.00 78 1017.0
20260506034605 44 202 0.0 0.0 0.00 0.02 0.00 78 1017.0
20260506034505 44 202 0.0 0.0 0.00 0.02 0.00 78 1017.0
20260506034405 44 202 0.0 0.0 0.00 0.02 0.00 78 1017.0
20260506034305 44 202 0.0 0.0 0.00 0.02 0.00 78 1017.0
20260506034205 44 202 0.0 0.0 0.00 0.02 0.00 78 1017.0
20260506034105 44 202 0.0 0.0 0.00 0.02 0.00 78 1017.0
20260506034005 44 202 0.0 0.0 0.00 0.02 0.00 78 1017.0
20260506033905 44 202 0.0 0.0 0.00 0.02 0.00 78 1017.0
20260506033805 44 202 0.0 0.0 0.00 0.02 0.00 78 1017.0
20260506033705 44 202 0.0 0.0 0.00 0.02 0.00 78 1017.0
20260506033605 44 202 0.0 0.0 0.00 0.02 0.00 78 1017.0
20260506033505 43 202 0.0 0.0 0.00 0.02 0.00 77 1017.0
20260506033405 43 202 0.0 0.0 0.00 0.02 0.00 77 1017.0
20260506033305 43 202 0.0 0.0 0.00 0.02 0.00 77 1017.0
20260506033205 43 202 0.0 0.0 0.00 0.02 0.00 77 1017.0
20260506033105 43 202 0.0 0.0 0.00 0.02 0.00 77 1017.0
20260506033006 43 202 0.0 0.0 0.00 0.02 0.00 77 1017.0
20260506032905 43 202 0.0 0.0 0.00 0.02 0.00 77 1017.0
20260506032805 43 202 0.0 0.0 0.00 0.02 0.00 77 1017.0
20260506032705 44 202 0.0 0.0 0.00 0.02 0.00 77 1017.0
20260506032605 44 202 0.0 0.0 0.00 0.02 0.00 77 1017.0
20260506032505 44 202 0.0 0.0 0.00 0.02 0.00 77 1017.0
20260506032405 44 202 0.0 0.0 0.00 0.02 0.00 77 1017.0
20260506032306 44 202 0.0 0.0 0.00 0.02 0.00 77 1017.0
20260506032205 44 202 0.0 0.0 0.00 0.02 0.00 77 1017.0
20260506032105 43 202 0.0 0.0 0.00 0.02 0.00 77 1016.9
20260506032005 43 202 0.0 0.0 0.00 0.02 0.00 77 1017.0
20260506031905 43 202 0.0 0.0 0.00 0.02 0.00 77 1017.0
20260506031805 43 202 0.0 0.0 0.00 0.02 0.00 77 1017.0
20260506031705 43 202 0.0 0.0 0.00 0.02 0.00 77 1017.0
20260506031605 43 202 0.0 0.0 0.00 0.02 0.00 77 1017.0
20260506031505 43 202 0.0 0.0 0.00 0.02 0.00 77 1017.0
20260506031405 43 202 0.0 0.0 0.00 0.02 0.00 77 1017.0
20260506031305 43 202 0.0 0.0 0.00 0.02 0.00 77 1017.0
20260506031205 43 202 0.0 0.0 0.00 0.02 0.00 77 1017.0
20260506031105 43 202 0.0 0.0 0.00 0.02 0.00 77 1017.0
20260506031005 43 202 0.0 0.0 0.00 0.02 0.00 77 1017.0
20260506030905 43 202 0.0 0.0 0.00 0.02 0.00 77 1017.0
20260506030805 43 202 0.0 0.0 0.00 0.02 0.00 77 1017.0
20260506030705 43 202 0.0 0.0 0.00 0.02 0.00 77 1017.0
20260506030605 43 202 0.0 0.0 0.00 0.02 0.00 77 1017.0
20260506030505 43 202 0.0 0.0 0.00 0.02 0.00 77 1017.2
20260506030405 43 202 0.0 0.0 0.00 0.02 0.00 77 1017.2
20260506030305 43 202 0.0 0.0 0.00 0.02 0.00 77 1017.2
20260506030205 43 202 0.0 0.0 0.00 0.02 0.00 77 1017.2
20260506030105 43 202 0.0 0.0 0.00 0.02 0.00 77 1017.2
20260506030005 43 202 0.0 0.0 0.00 0.02 0.00 77 1017.2
20260506025905 43 202 0.0 0.0 0.00 0.02 0.00 77 1017.4
20260506025805 44 202 0.0 0.0 0.00 0.02 0.00 77 1017.2
20260506025705 44 202 0.0 0.0 0.00 0.02 0.00 77 1017.4
20260506025605 44 202 0.0 0.0 0.00 0.02 0.00 77 1017.2
20260506025505 44 202 0.0 0.0 0.00 0.02 0.00 77 1017.2
20260506025405 44 202 0.0 0.0 0.00 0.02 0.00 77 1017.4
20260506025306 43 202 0.0 0.0 0.00 0.02 0.00 77 1017.2
20260506025205 43 202 0.0 0.0 0.00 0.02 0.00 77 1017.4
20260506025105 43 202 0.0 0.0 0.00 0.02 0.00 77 1017.4
20260506025005 43 202 0.0 0.0 0.00 0.02 0.00 77 1017.4
20260506024905 44 202 0.0 0.0 0.00 0.02 0.00 77 1017.4
20260506024805 44 202 0.0 0.0 0.00 0.02 0.00 77 1017.2
20260506024705 43 202 0.0 0.0 0.00 0.02 0.00 77 1017.2
20260506024605 44 202 0.0 0.0 0.00 0.02 0.00 77 1017.2
20260506024505 44 202 0.0 0.0 0.00 0.02 0.00 77 1017.4
20260506024405 44 202 0.0 0.0 0.00 0.02 0.00 77 1017.4
20260506024306 44 202 0.0 0.0 0.00 0.02 0.00 77 1017.2
20260506024205 44 202 0.0 0.0 0.00 0.02 0.00 77 1017.4
20260506024105 44 202 0.0 0.0 0.00 0.02 0.00 77 1017.5
20260506024005 44 202 0.0 0.0 0.00 0.02 0.00 77 1017.5
20260506023905 44 202 0.0 0.0 0.00 0.02 0.00 77 1017.5
20260506023805 44 202 0.0 0.0 0.00 0.02 0.00 77 1017.5
20260506023705 44 202 0.0 0.0 0.00 0.02 0.00 77 1017.4
20260506023605 44 202 0.0 0.0 0.00 0.02 0.00 77 1017.5
20260506023505 44 202 0.0 0.0 0.00 0.02 0.00 77 1017.5
20260506023405 44 202 0.0 0.0 0.00 0.02 0.00 77 1017.5
20260506023305 44 202 0.0 0.0 0.00 0.02 0.00 77 1017.5
20260506023205 44 202 0.0 0.0 0.00 0.02 0.00 77 1017.5
20260506023105 44 202 0.0 0.0 0.00 0.02 0.00 77 1017.5
20260506023005 44 202 0.0 0.0 0.00 0.02 0.00 77 1017.5
20260506022905 44 202 0.0 0.0 0.00 0.02 0.00 77 1017.5
20260506022805 44 202 0.0 0.0 0.00 0.02 0.00 77 1017.7
20260506022705 44 202 0.0 0.0 0.00 0.02 0.00 77 1017.7
20260506022605 44 202 0.0 0.0 0.00 0.02 0.00 77 1017.7
20260506022505 44 202 0.0 0.0 0.00 0.02 0.00 77 1017.7
20260506022405 44 202 0.0 0.0 0.00 0.02 0.00 77 1017.7
20260506022306 44 202 0.0 0.0 0.00 0.02 0.00 76 1017.9
20260506022205 44 202 0.0 0.0 0.00 0.02 0.00 76 1017.9
20260506022105 44 202 0.0 0.0 0.00 0.02 0.00 76 1017.7
20260506022005 44 202 0.0 0.0 0.00 0.02 0.00 76 1017.7
20260506021905 44 202 0.0 0.0 0.00 0.02 0.00 76 1017.7
20260506021805 44 202 0.0 0.0 0.00 0.02 0.00 76 1017.9
20260506021705 44 202 0.0 0.0 0.00 0.02 0.00 77 1017.9
20260506021605 44 202 0.0 0.0 0.00 0.02 0.00 77 1017.9
20260506021505 44 202 0.0 0.0 0.00 0.02 0.00 77 1017.9
20260506021405 44 202 0.0 0.0 0.00 0.02 0.00 77 1017.9
20260506021305 44 202 0.0 0.0 0.00 0.02 0.00 77 1017.7
20260506021205 44 202 0.0 0.0 0.00 0.02 0.00 76 1017.9
20260506021105 44 202 0.0 0.0 0.00 0.02 0.00 76 1017.9
20260506021005 44 202 0.0 0.0 0.00 0.02 0.00 76 1017.9
20260506020905 44 202 0.0 0.0 0.00 0.02 0.00 76 1017.7
20260506020805 44 202 0.0 0.0 0.00 0.02 0.00 76 1017.9
20260506020705 44 202 0.0 0.0 0.00 0.02 0.00 76 1017.9
20260506020605 44 202 0.0 0.0 0.00 0.02 0.00 76 1017.9
20260506020505 44 202 0.0 0.0 0.00 0.02 0.00 76 1017.9
20260506020405 45 202 0.0 0.0 0.00 0.02 0.00 76 1017.9
20260506020305 45 202 0.0 0.0 0.00 0.02 0.00 76 1017.9
20260506020205 45 202 0.0 0.0 0.00 0.02 0.00 76 1017.9
20260506020105 45 202 0.0 0.0 0.00 0.02 0.00 76 1017.9
20260506020005 45 202 0.0 0.0 0.00 0.02 0.00 76 1017.9
20260506015905 45 202 0.0 0.0 0.00 0.02 0.00 76 1017.9
20260506015805 45 202 0.0 0.0 0.00 0.02 0.00 76 1017.7
20260506015700 45 202 0.0 0.0 0.00 0.02 0.00 76 1017.7
20260506015605 45 202 0.0 0.0 0.00 0.02 0.00 76 1017.9
20260506015505 45 202 0.0 0.0 0.00 0.02 0.00 76 1017.7
20260506015405 45 202 0.0 0.0 0.00 0.02 0.00 76 1017.7
20260506015306 45 202 0.0 0.0 0.00 0.02 0.00 76 1017.9
20260506015205 45 202 0.0 0.0 0.00 0.02 0.00 76 1017.7
20260506015105 45 202 0.0 0.0 0.00 0.02 0.00 76 1017.7
20260506015005 45 202 0.0 0.0 0.00 0.02 0.00 76 1017.7
20260506014905 45 202 0.0 0.0 0.00 0.02 0.00 76 1017.9
20260506014805 45 202 0.0 0.0 0.00 0.02 0.00 76 1017.7
20260506014705 45 202 0.0 0.0 0.00 0.02 0.00 76 1017.7
20260506014605 45 202 0.0 0.0 0.00 0.02 0.00 76 1017.7
20260506014505 45 202 0.0 0.0 0.00 0.02 0.00 76 1017.7
20260506014405 45 202 0.0 0.0 0.00 0.02 0.00 76 1017.9
20260506014305 45 202 0.0 0.0 0.00 0.02 0.00 76 1017.7
20260506014205 45 202 0.0 0.0 0.00 0.02 0.00 76 1017.7
20260506014105 45 202 0.0 0.0 0.00 0.02 0.00 76 1017.7
20260506014005 45 202 0.0 0.0 0.00 0.02 0.00 76 1017.7
20260506013905 45 202 0.0 0.0 0.00 0.02 0.00 76 1017.7
20260506013805 45 202 0.0 0.0 0.00 0.02 0.00 76 1017.7
20260506013705 45 202 0.0 0.0 0.00 0.02 0.00 76 1017.7
20260506013605 45 202 0.0 0.0 0.00 0.02 0.00 76 1017.7
20260506013505 45 202 0.0 0.0 0.00 0.02 0.00 76 1017.5
20260506013405 45 202 0.0 0.0 0.00 0.02 0.00 76 1017.5
20260506013305 45 202 0.0 0.0 0.00 0.02 0.00 76 1017.5
20260506013205 45 202 0.0 0.0 0.00 0.02 0.00 76 1017.7
20260506013105 45 202 0.0 0.0 0.00 0.02 0.00 76 1017.7
20260506013005 45 202 0.0 0.0 0.00 0.02 0.00 76 1017.5
20260506012905 45 202 0.0 0.0 0.00 0.02 0.00 76 1017.5
20260506012805 45 202 0.0 0.0 0.00 0.02 0.00 76 1017.7
20260506012705 45 202 0.0 0.0 0.00 0.02 0.00 76 1017.7
20260506012605 45 202 0.0 0.0 0.00 0.02 0.00 76 1017.7
20260506012505 45 202 0.0 0.0 0.00 0.02 0.00 76 1017.7
20260506012405 45 202 0.0 0.0 0.00 0.02 0.00 76 1017.7
20260506012308 45 202 159.0 0.0 0.00 0.02 0.00 76 1017.7
20260506012205 45 202 0.0 0.0 0.00 0.02 0.00 76 1017.9
20260506012105 45 202 0.0 0.0 0.00 0.02 0.00 76 1017.9
20260506012005 45 202 0.0 0.0 0.00 0.02 0.00 76 1017.9
20260506011905 45 202 0.0 0.0 0.00 0.02 0.00 76 1017.9
20260506011805 45 202 0.0 0.0 0.00 0.02 0.00 76 1017.9
20260506011705 45 202 0.0 0.0 0.00 0.02 0.00 76 1017.9
20260506011605 46 202 0.0 0.0 0.00 0.02 0.00 76 1017.9
20260506011505 46 202 0.0 0.0 0.00 0.02 0.00 76 1017.9
20260506011405 46 202 0.0 0.0 0.00 0.02 0.00 76 1017.9
20260506011305 46 202 0.0 0.0 0.00 0.02 0.00 76 1017.9
20260506011205 46 202 0.0 0.0 0.00 0.02 0.00 76 1017.9
20260506011105 46 202 0.0 0.0 0.00 0.02 0.00 76 1017.9
20260506011005 46 202 0.0 0.0 0.00 0.02 0.00 76 1017.9
20260506010905 46 202 0.0 0.0 0.00 0.02 0.00 76 1018.0
20260506010805 46 202 0.0 0.0 0.00 0.02 0.00 76 1017.9
20260506010705 46 202 0.0 0.0 0.00 0.02 0.00 76 1017.9
20260506010605 46 202 0.0 0.0 0.00 0.02 0.00 76 1018.0
20260506010505 46 202 0.0 0.0 0.00 0.02 0.00 76 1017.9
20260506010405 46 202 0.0 0.0 0.00 0.02 0.00 76 1018.0
20260506010305 46 202 0.0 0.0 0.00 0.02 0.00 75 1018.0
20260506010205 46 202 0.0 0.0 0.00 0.02 0.00 75 1018.0
20260506010105 46 202 0.0 0.0 0.00 0.02 0.00 75 1018.0
20260506010005 46 202 0.0 0.0 0.00 0.02 0.00 75 1018.0
20260506005905 46 202 0.0 0.0 0.07 0.02 0.00 75 1018.0
20260506005805 46 202 0.0 0.0 0.00 0.02 0.00 75 1018.0
20260506005705 46 202 0.0 0.0 0.00 0.02 0.00 75 1018.0
20260506005605 46 202 0.0 0.0 0.00 0.02 0.00 75 1018.2
20260506005505 46 202 0.0 0.0 0.00 0.02 0.00 75 1018.2
20260506005405 46 202 0.0 0.0 0.00 0.02 0.00 75 1018.2
20260506005306 46 202 0.0 0.0 0.00 0.02 0.00 75 1018.0
20260506005205 46 202 0.0 0.0 0.00 0.02 0.00 75 1018.0
20260506005105 46 202 0.0 0.0 0.00 0.02 0.00 75 1018.2
20260506005006 46 202 0.0 0.0 0.00 0.02 0.00 75 1018.0
20260506004905 46 202 0.0 0.0 0.00 0.02 0.00 75 1018.0
20260506004805 46 202 0.0 0.0 0.00 0.02 0.00 75 1018.0
20260506004705 46 202 0.0 0.0 0.00 0.02 0.00 75 1018.0
20260506004605 46 202 0.0 0.0 0.00 0.02 0.00 75 1018.0
20260506004505 46 202 0.0 0.0 0.00 0.02 0.00 75 1018.0
20260506004405 46 202 0.0 0.0 0.00 0.02 0.00 75 1018.2
20260506004305 46 202 0.0 0.0 0.00 0.02 0.00 75 1018.2
20260506004205 46 202 0.0 0.0 0.00 0.02 0.00 75 1018.4
20260506004105 46 202 0.0 0.0 0.00 0.02 0.00 75 1018.2
20260506004005 46 202 0.0 0.0 0.00 0.02 0.00 75 1018.2
20260506003905 46 202 0.0 0.0 0.00 0.02 0.00 75 1018.2
20260506003805 46 202 0.0 0.0 0.00 0.02 0.00 75 1018.2
20260506003705 46 202 0.0 0.0 0.00 0.02 0.00 75 1018.4
20260506003605 46 202 0.0 0.0 0.00 0.02 0.00 75 1018.2
20260506003505 46 202 0.0 0.0 0.00 0.02 0.00 75 1018.2
20260506003405 46 202 0.0 0.0 0.00 0.02 0.00 75 1018.4
20260506003305 47 202 0.0 0.0 0.00 0.02 0.00 75 1018.2
20260506003205 47 202 0.0 0.0 0.00 0.02 0.00 75 1018.2
20260506003105 47 202 0.0 0.0 0.00 0.02 0.00 75 1018.2
20260506003005 47 202 0.0 0.0 0.00 0.02 0.00 75 1018.2
20260506002905 47 202 0.0 0.0 0.00 0.02 0.00 75 1018.2
20260506002805 47 202 0.0 0.0 0.00 0.02 0.00 75 1018.2
20260506002700 47 202 0.0 0.0 0.00 0.02 0.00 75 1018.0
20260506002605 47 202 0.0 0.0 0.00 0.02 0.00 75 1018.0
20260506002505 47 202 0.0 0.0 0.00 0.02 0.00 75 1018.0
20260506002405 47 202 0.0 0.0 0.00 0.02 0.00 75 1018.2
20260506002306 47 202 0.0 0.0 0.00 0.02 0.00 75 1018.0
20260506002205 47 202 0.0 0.0 0.00 0.02 0.00 75 1018.0
20260506002105 47 202 0.0 0.0 0.00 0.02 0.00 75 1018.0
20260506002005 47 202 0.0 0.0 0.00 0.02 0.00 75 1018.2
20260506001905 47 202 0.0 0.0 0.00 0.02 0.00 75 1018.2
20260506001805 48 202 0.0 0.0 0.00 0.02 0.00 75 1018.2
20260506001705 48 202 0.0 0.0 0.00 0.02 0.00 75 1018.2
20260506001605 48 202 0.0 0.0 0.00 0.02 0.00 75 1018.2
20260506001505 48 202 0.0 0.0 0.00 0.02 0.00 75 1018.2
20260506001405 48 202 0.0 0.0 0.00 0.02 0.00 75 1018.0
20260506001305 48 202 0.0 0.0 0.00 0.02 0.00 75 1018.0
20260506001205 48 202 0.0 0.0 0.00 0.02 0.00 75 1018.0
20260506001105 48 202 0.0 0.0 0.00 0.02 0.00 75 1018.0
20260506001005 48 202 0.0 0.0 0.00 0.02 0.00 75 1018.0
20260506000905 48 202 0.0 0.0 0.00 0.02 0.00 75 1018.0
20260506000805 48 202 0.0 0.0 0.00 0.02 0.00 75 1018.0
20260506000705 48 202 0.0 0.0 0.00 0.02 0.00 75 1018.0
20260506000605 48 202 0.0 0.0 0.00 0.02 0.00 75 1018.0
20260506000505 48 202 0.0 0.0 0.00 0.02 0.00 75 1018.0
20260506000405 48 202 0.0 0.0 0.00 0.02 0.00 75 1018.2
20260506000305 48 202 0.0 0.0 0.00 0.02 0.00 75 1018.2
20260506000205 48 202 0.0 0.0 0.00 0.02 0.00 75 1018.2
20260506000105 48 202 0.0 0.0 0.00 0.02 0.00 75 1018.2
20260506000005 48 202 0.0 0.0 0.00 0.02 0.00 75 1018.2
20260505235905 48 202 0.0 0.0 0.00 0.02 0.00 75 1018.2
20260505235805 48 202 0.0 0.0 0.00 0.02 0.00 75 1018.2
20260505235705 48 202 0.0 0.0 0.00 0.02 0.00 75 1018.2
20260505235605 48 202 0.0 0.0 0.00 0.02 0.00 75 1018.2
20260505235505 48 202 0.0 0.0 0.00 0.02 0.00 75 1018.4
20260505235405 48 202 0.0 0.0 0.00 0.02 0.00 75 1018.2
20260505235305 48 202 0.0 0.0 0.00 0.02 0.00 75 1018.2
20260505235205 48 202 0.0 0.0 0.00 0.02 0.00 75 1018.2
20260505235105 48 202 0.0 0.0 0.00 0.02 0.00 75 1018.2
20260505235005 48 202 0.0 0.0 0.00 0.02 0.00 75 1018.4
20260505234905 48 202 0.0 0.0 0.00 0.02 0.00 75 1018.2
20260505234805 48 202 0.0 0.0 0.00 0.02 0.00 75 1018.4
20260505234705 48 202 0.0 0.0 0.00 0.02 0.00 75 1018.2
20260505234605 48 202 0.0 0.0 0.00 0.02 0.00 75 1018.2
20260505234505 48 202 0.0 0.0 0.00 0.02 0.00 75 1018.4
20260505234405 48 202 0.0 0.0 0.00 0.02 0.00 75 1018.2
20260505234305 48 202 0.0 0.0 0.00 0.02 0.00 75 1018.2
20260505234205 48 202 0.0 0.0 0.00 0.02 0.00 74 1018.2
20260505234105 48 202 0.0 0.0 0.00 0.02 0.00 74 1018.2
20260505234005 48 202 0.0 0.0 0.00 0.02 0.00 74 1018.2
20260505233905 48 202 0.0 0.0 0.00 0.02 0.00 74 1018.2
20260505233805 48 202 0.0 0.0 0.00 0.02 0.00 74 1018.2
20260505233705 48 202 0.0 0.0 0.00 0.02 0.00 74 1018.4
20260505233605 48 202 0.0 0.0 0.00 0.02 0.00 74 1018.4
20260505233505 48 202 0.0 0.0 0.00 0.02 0.00 74 1018.4
20260505233305 48 202 0.0 0.0 0.00 0.02 0.00 74 1018.4
20260505233205 48 202 0.0 0.0 0.00 0.02 0.00 74 1018.5
20260505233105 48 202 0.0 0.0 0.00 0.02 0.00 74 1018.4
20260505233005 48 202 0.0 0.0 0.00 0.02 0.00 74 1018.4
20260505232905 48 202 0.0 0.0 0.00 0.02 0.00 74 1018.4
20260505232805 48 202 0.0 0.0 0.00 0.02 0.00 74 1018.4
20260505232705 48 202 0.0 0.0 0.00 0.02 0.00 74 1018.4
20260505232605 48 202 0.0 0.0 0.00 0.02 0.00 74 1018.4
20260505232505 48 202 0.0 0.0 0.00 0.02 0.00 74 1018.5
20260505232405 48 202 0.0 0.0 0.00 0.02 0.00 74 1018.4
20260505232305 48 202 0.0 0.0 0.00 0.02 0.00 74 1018.4
20260505232205 48 202 0.0 0.0 0.00 0.02 0.00 74 1018.4
20260505232105 48 202 0.0 0.0 0.00 0.02 0.00 74 1018.4
20260505232005 48 202 0.0 0.0 0.00 0.02 0.00 74 1018.4
20260505231905 48 202 0.0 0.0 0.00 0.02 0.00 74 1018.5
20260505231805 48 202 0.0 0.0 0.00 0.02 0.00 74 1018.5
20260505231705 48 202 0.0 0.0 0.00 0.02 0.00 74 1018.4
20260505231605 48 202 0.0 0.0 0.00 0.02 0.00 74 1018.4
20260505231505 48 202 0.0 0.0 0.00 0.02 0.00 74 1018.5
20260505231405 48 202 0.0 0.0 0.00 0.02 0.00 74 1018.4
20260505231305 48 202 0.0 0.0 0.00 0.02 0.00 74 1018.4
20260505231205 48 202 0.0 0.0 0.00 0.02 0.00 74 1018.2
20260505231105 48 202 0.0 0.0 0.00 0.02 0.00 74 1018.4
20260505231005 48 202 0.0 0.0 0.00 0.02 0.00 74 1018.5
20260505230905 48 202 0.0 0.0 0.00 0.02 0.00 74 1018.4
20260505230805 48 202 0.0 0.0 0.00 0.02 0.00 74 1018.4
20260505230705 48 202 0.0 0.0 0.00 0.02 0.00 74 1018.5
20260505230605 48 202 0.0 0.0 0.00 0.02 0.00 74 1018.5
20260505230505 48 202 0.0 0.0 0.00 0.02 0.00 74 1018.5
20260505230405 48 202 0.0 0.0 0.00 0.02 0.00 74 1018.5
20260505230305 48 202 0.0 0.0 0.00 0.02 0.00 74 1018.5
20260505230205 48 202 0.0 0.0 0.00 0.02 0.00 74 1018.4
20260505230105 48 202 0.0 0.0 0.00 0.02 0.00 74 1018.5
20260505230005 48 202 0.0 0.0 0.00 0.02 0.00 74 1018.5
20260505225905 48 202 0.0 0.0 0.00 0.02 0.00 74 1018.5
20260505225805 48 202 0.0 0.0 0.00 0.02 0.00 74 1018.5
20260505225700 48 202 0.0 0.0 0.00 0.02 0.00 74 1018.5
20260505225605 48 202 0.0 0.0 0.00 0.02 0.00 74 1018.5
20260505225505 48 202 0.0 0.0 0.00 0.02 0.00 74 1018.5
20260505225405 48 202 0.0 0.0 0.00 0.02 0.00 74 1018.5
20260505225306 48 202 0.0 0.0 0.00 0.02 0.00 74 1018.2
20260505225205 48 202 0.0 0.0 0.00 0.02 0.00 74 1018.4
20260505225105 48 202 0.0 0.0 0.00 0.02 0.00 74 1018.4
20260505225005 48 202 0.0 0.0 0.00 0.02 0.00 74 1018.4
20260505224905 48 202 0.0 0.0 0.00 0.02 0.00 74 1018.2
20260505224805 48 202 0.0 0.0 0.00 0.02 0.00 74 1018.4
20260505224705 48 202 0.0 0.0 0.00 0.02 0.00 74 1018.5
20260505224605 48 202 0.0 0.0 0.00 0.02 0.00 74 1018.5
20260505224505 48 202 0.0 0.0 0.00 0.02 0.00 74 1018.5
20260505224405 48 202 0.0 0.0 0.00 0.02 0.00 74 1018.5
20260505224305 48 202 0.0 0.0 0.00 0.02 0.00 74 1018.5
20260505224205 47 202 0.0 0.0 0.00 0.02 0.00 74 1018.5
20260505224105 47 202 0.0 0.0 0.00 0.02 0.00 74 1018.4
20260505224005 47 202 0.0 0.0 0.00 0.02 0.00 74 1018.5
20260505223905 47 202 0.0 0.0 0.00 0.02 0.00 74 1018.5
20260505223805 47 202 0.0 0.0 0.00 0.02 0.00 74 1018.5
20260505223705 47 202 0.0 0.0 0.00 0.02 0.00 74 1018.5
20260505223605 47 202 0.0 0.0 0.00 0.02 0.00 73 1018.5
20260505223505 47 202 0.0 0.0 0.00 0.02 0.00 73 1018.5
20260505223405 47 202 0.0 0.0 0.00 0.02 0.00 73 1018.5
20260505223305 47 202 0.0 0.0 0.00 0.02 0.00 73 1018.5
20260505223205 47 202 0.0 0.0 0.00 0.02 0.00 73 1018.5
20260505223105 47 202 0.0 0.0 0.00 0.02 0.00 73 1018.5
20260505223005 47 202 0.0 0.0 0.00 0.02 0.00 73 1018.5
20260505222905 47 202 0.0 0.0 0.00 0.02 0.00 73 1018.5
20260505222805 47 202 0.0 0.0 0.00 0.02 0.00 73 1018.7
20260505222705 47 202 0.0 0.0 0.00 0.02 0.00 73 1018.5
20260505222605 47 202 0.0 0.0 0.00 0.02 0.00 73 1018.7
20260505222505 47 202 0.0 0.0 0.00 0.02 0.00 73 1018.5
20260505222405 47 202 0.0 0.0 0.00 0.02 0.00 73 1018.7
20260505222306 47 202 0.0 0.0 0.00 0.02 0.00 73 1018.7
20260505222205 47 202 0.0 0.0 0.00 0.02 0.00 73 1018.5
20260505222105 47 202 0.0 0.0 0.00 0.02 0.00 73 1018.7
20260505222005 47 202 0.0 0.0 0.00 0.02 0.00 73 1018.7
20260505221905 47 202 0.0 0.0 0.00 0.02 0.00 73 1018.7
20260505221805 47 202 0.0 0.0 0.00 0.02 0.00 73 1018.5
20260505221705 47 202 0.0 0.0 0.00 0.02 0.00 73 1018.5
20260505221605 47 202 0.0 0.0 0.00 0.02 0.00 73 1018.7
20260505221505 47 202 0.0 0.0 0.00 0.02 0.00 73 1018.5
20260505221405 47 202 0.0 0.0 0.00 0.02 0.00 73 1018.7
20260505221305 47 180 0.0 0.0 0.00 0.02 0.00 73 1018.5
20260505221205 47 180 0.0 0.0 0.00 0.02 0.00 73 1018.7
20260505221105 47 180 0.0 0.0 0.00 0.02 0.00 73 1018.7
20260505221005 47 180 0.0 0.0 0.00 0.02 0.00 73 1018.7
20260505220905 47 180 0.0 0.0 0.00 0.02 0.00 73 1018.5
20260505220805 47 180 0.0 0.0 0.00 0.02 0.00 73 1018.7
20260505220705 47 180 0.0 0.0 0.00 0.02 0.00 73 1018.7
20260505220605 47 180 0.0 0.0 0.00 0.02 0.00 73 1018.7
20260505220505 47 180 0.0 0.0 0.00 0.02 0.00 73 1018.7
20260505220405 47 180 0.0 0.0 0.00 0.02 0.00 73 1018.9
20260505220305 47 180 0.0 0.0 0.00 0.02 0.00 73 1018.7
20260505220205 47 180 0.0 0.0 0.00 0.02 0.00 73 1018.7
20260505220105 47 180 0.0 0.0 0.00 0.02 0.00 73 1018.9
20260505220005 47 180 0.0 0.0 0.00 0.02 0.00 72 1018.9
20260505215905 47 180 0.0 0.0 0.00 0.02 0.00 72 1018.9
20260505215805 47 180 0.0 0.0 0.00 0.02 0.00 72 1019.0
20260505215705 47 180 0.0 0.0 0.00 0.02 0.00 72 1018.9
20260505215605 47 180 0.0 0.0 0.00 0.02 0.00 72 1019.0
20260505215505 47 180 0.0 0.0 0.00 0.02 0.00 72 1019.0
20260505215405 47 180 0.0 0.0 0.00 0.02 0.00 72 1018.9
20260505215305 47 180 0.0 0.0 0.00 0.02 0.00 72 1018.9
20260505215205 47 180 0.0 0.0 0.00 0.02 0.00 72 1018.9
20260505215105 47 180 0.0 0.0 0.00 0.02 0.00 72 1018.9
20260505215005 47 180 0.0 0.0 0.00 0.02 0.00 72 1018.9
20260505214905 47 180 0.0 0.0 0.00 0.02 0.00 72 1018.7
20260505214805 47 180 0.0 0.0 0.00 0.02 0.00 72 1018.7
20260505214705 47 180 0.0 0.0 0.00 0.02 0.00 72 1018.5
20260505214605 47 180 0.0 0.0 0.00 0.02 0.00 72 1018.7
20260505214505 48 180 0.0 0.0 0.00 0.02 0.00 72 1018.7
20260505214405 48 180 0.0 0.0 0.00 0.02 0.00 72 1018.7
20260505214305 48 180 0.0 0.0 0.00 0.02 0.00 72 1018.7
20260505214205 48 180 0.0 0.0 0.00 0.02 0.00 72 1018.7
20260505214105 48 180 0.0 0.0 0.00 0.02 0.00 72 1018.7
20260505214005 48 180 0.0 0.0 0.00 0.02 0.00 72 1018.5
20260505213905 48 180 0.0 0.0 0.00 0.02 0.00 72 1018.7
20260505213805 48 180 0.0 0.0 0.00 0.02 0.00 72 1018.7
20260505213705 48 180 0.0 0.0 0.00 0.02 0.00 72 1018.7
20260505213605 48 180 0.0 0.0 0.00 0.02 0.00 72 1018.5
20260505213505 48 180 0.0 0.0 0.00 0.02 0.00 72 1018.5
20260505213405 48 180 0.0 0.0 0.00 0.02 0.00 72 1018.7
20260505213305 48 180 0.0 0.0 0.00 0.02 0.00 72 1018.7
20260505213205 48 180 0.0 0.0 0.00 0.02 0.00 72 1018.7
20260505213105 48 180 0.0 0.0 0.00 0.02 0.00 72 1018.7
20260505213005 48 180 0.0 0.0 0.00 0.02 0.00 72 1018.7
20260505212905 48 180 0.0 0.0 0.00 0.02 0.00 72 1018.7
20260505212805 48 180 0.0 0.0 0.00 0.02 0.00 71 1018.7
20260505212705 48 180 0.0 0.0 0.00 0.02 0.00 71 1018.7
20260505212605 48 180 0.0 0.0 0.00 0.02 0.00 71 1018.7
20260505212505 48 180 0.0 0.0 0.00 0.02 0.00 71 1018.7
20260505212405 48 180 0.0 0.0 0.00 0.02 0.00 71 1018.7
20260505212306 48 180 0.0 0.0 0.00 0.02 0.00 71 1018.7
20260505212205 48 180 0.0 0.0 0.00 0.02 0.00 71 1018.9
20260505212105 48 180 0.0 0.0 0.00 0.02 0.00 71 1018.9
20260505212005 48 180 0.0 0.0 0.00 0.02 0.00 71 1018.7
20260505211905 48 180 0.0 0.0 0.00 0.02 0.00 71 1018.7
20260505211805 49 180 0.0 0.0 0.00 0.02 0.00 71 1018.7
20260505211705 49 180 0.0 0.0 0.00 0.02 0.00 71 1018.7
20260505211605 49 180 0.0 0.0 0.00 0.02 0.00 71 1018.7
20260505211505 49 180 0.0 0.0 0.00 0.02 0.00 71 1018.9
20260505211405 49 180 0.0 0.0 0.00 0.02 0.00 71 1018.7
20260505211305 49 180 0.0 0.0 0.00 0.02 0.00 71 1018.7
20260505211205 49 180 0.0 0.0 0.00 0.02 0.00 71 1018.9
20260505211105 49 180 0.0 0.0 0.00 0.02 0.00 71 1019.0
20260505211005 49 180 0.0 0.0 0.00 0.02 0.00 71 1018.9
20260505210905 49 180 0.0 0.0 0.00 0.02 0.00 71 1018.7
20260505210805 49 180 0.0 0.0 0.00 0.02 0.00 71 1018.9
20260505210705 49 180 0.0 0.0 0.00 0.02 0.00 71 1018.7
20260505210605 49 180 0.0 0.0 0.00 0.02 0.00 71 1018.7
20260505210505 49 180 0.0 0.0 0.00 0.02 0.00 71 1018.9
20260505210405 49 180 0.0 0.0 0.00 0.02 0.00 71 1018.7
20260505210305 49 180 0.0 0.0 0.00 0.02 0.00 71 1018.7
20260505210205 49 180 0.0 0.0 0.00 0.02 0.00 71 1019.0
20260505210105 49 180 0.0 0.0 0.00 0.02 0.00 71 1019.0
20260505210005 49 180 0.0 0.0 0.00 0.02 0.00 71 1018.9
20260505205905 49 180 0.0 0.0 0.00 0.02 0.00 71 1019.0
20260505205805 49 180 0.0 0.0 0.00 0.02 0.00 71 1018.9
20260505205705 49 180 0.0 0.0 0.00 0.02 0.00 71 1018.9
20260505205605 49 180 0.0 0.0 0.00 0.02 0.00 71 1018.9
20260505205505 49 180 0.0 0.0 0.00 0.02 0.00 71 1019.0
20260505205405 49 180 0.0 0.0 0.00 0.02 0.00 71 1019.0
20260505205305 49 180 0.0 0.0 0.00 0.02 0.00 70 1019.0
20260505205205 49 180 0.0 0.0 0.00 0.02 0.00 70 1019.0
20260505205105 50 180 0.0 0.0 0.00 0.02 0.00 70 1019.0
20260505205005 50 180 0.0 0.0 0.00 0.02 0.00 70 1019.0
20260505204905 50 180 0.0 0.0 0.00 0.02 0.00 70 1019.0
20260505204805 50 180 0.0 0.0 0.00 0.02 0.00 70 1019.0
20260505204705 50 180 0.0 0.0 0.00 0.02 0.00 70 1019.0
20260505204605 50 180 0.0 0.0 0.00 0.02 0.00 70 1019.0
20260505204505 50 180 0.0 0.0 0.00 0.02 0.00 70 1019.0
20260505204405 50 180 0.0 0.0 0.00 0.02 0.00 70 1019.0
20260505204305 50 180 0.0 0.0 0.00 0.02 0.00 70 1019.0
20260505204205 50 180 0.0 0.0 0.00 0.02 0.00 70 1019.0
20260505204105 50 180 0.0 0.0 0.00 0.02 0.00 70 1018.9
20260505204005 50 180 0.0 0.0 0.00 0.02 0.00 70 1018.9
20260505203905 50 180 0.0 0.0 0.00 0.02 0.00 70 1018.9
20260505203805 50 180 0.0 0.0 0.00 0.02 0.00 70 1018.9
20260505203705 50 180 0.0 0.0 0.00 0.02 0.00 70 1018.9
20260505203605 50 180 0.0 0.0 0.00 0.02 0.00 70 1019.0
20260505203505 50 180 0.0 0.0 0.00 0.02 0.00 70 1019.0
20260505203405 50 180 0.0 0.0 0.00 0.02 0.00 69 1018.9
20260505203305 50 180 0.0 0.0 0.00 0.02 0.00 69 1018.9
20260505203205 50 180 0.0 0.0 0.00 0.02 0.00 69 1018.9
20260505203105 51 180 0.0 0.0 0.00 0.02 0.00 69 1018.9
20260505203005 51 180 0.0 0.0 0.00 0.02 0.00 69 1018.7
20260505202905 51 180 0.0 0.0 0.00 0.02 0.00 69 1018.9
20260505202805 51 180 0.0 0.0 0.00 0.02 0.00 69 1018.9
20260505202705 51 180 0.0 0.0 0.00 0.02 0.00 69 1019.0
20260505202605 51 180 0.0 0.0 0.00 0.02 0.00 69 1019.0
20260505202505 51 180 0.0 0.0 0.00 0.02 0.00 69 1018.9
20260505202405 51 180 0.0 0.0 0.00 0.02 0.00 69 1018.9
20260505202306 51 180 0.0 0.0 0.00 0.02 0.00 69 1018.9
20260505202205 51 180 0.0 0.0 0.00 0.02 0.00 69 1018.9
20260505202105 51 180 0.0 0.0 0.00 0.02 0.00 69 1018.9
20260505202005 51 180 0.0 0.0 0.00 0.02 0.00 69 1018.9
20260505201905 51 180 0.0 0.0 0.00 0.02 0.00 69 1018.9
20260505201805 51 180 0.0 0.0 0.00 0.02 0.00 69 1018.7
20260505201705 51 180 0.0 0.0 0.00 0.02 0.00 69 1018.9
20260505201605 51 180 0.0 0.0 0.00 0.02 0.00 69 1018.7
20260505201505 51 180 0.0 0.0 0.00 0.02 0.00 69 1018.9
20260505201405 51 180 0.0 0.0 0.00 0.02 0.00 69 1018.9
20260505201305 51 180 0.0 0.0 0.00 0.02 0.00 69 1018.7
20260505201200 51 180 0.0 0.0 0.00 0.02 0.00 69 1018.7
20260505201105 51 180 0.0 0.0 0.00 0.02 0.00 69 1018.7
20260505201005 51 180 0.0 0.0 0.00 0.02 0.00 69 1018.7
20260505200905 51 180 0.0 0.0 0.00 0.02 0.00 69 1018.7
20260505200805 52 180 0.0 0.0 0.00 0.02 0.00 69 1018.7
20260505200705 52 180 0.0 0.0 0.00 0.02 0.00 69 1018.7
20260505200605 52 180 0.0 0.0 0.00 0.02 0.00 69 1018.7
20260505200505 52 180 0.0 0.0 0.00 0.02 0.00 69 1018.7
20260505200405 52 180 0.0 0.0 0.00 0.02 0.00 69 1018.9
20260505200305 52 180 0.0 0.0 0.00 0.02 0.00 69 1018.5
20260505200205 52 180 0.0 0.0 0.00 0.02 0.00 69 1018.5
20260505200105 52 180 0.0 0.0 0.00 0.02 0.00 69 1018.5
20260505200005 52 180 0.0 0.0 0.00 0.02 0.00 69 1018.5
20260505195905 52 180 0.0 0.0 0.00 0.02 0.00 68 1018.7
20260505195805 52 180 0.0 0.0 0.00 0.02 0.00 68 1018.5
20260505195705 52 180 0.0 0.0 0.00 0.02 0.00 68 1018.5
20260505195605 52 180 0.0 0.0 0.00 0.02 0.00 68 1018.5
20260505195505 52 180 0.0 0.0 0.00 0.02 0.00 68 1018.5
20260505195405 52 180 0.0 0.0 0.00 0.02 0.00 68 1018.5
20260505195305 52 180 0.0 0.0 0.00 0.02 0.00 68 1018.5
20260505195205 52 180 0.0 0.0 0.00 0.02 0.00 68 1018.5
20260505195105 52 180 0.0 0.0 0.00 0.02 0.00 68 1018.4
20260505195005 52 180 0.0 0.0 0.00 0.02 0.00 68 1018.5
20260505194905 52 180 0.0 0.0 0.00 0.02 0.00 68 1018.5
20260505194805 52 180 0.0 0.0 0.00 0.02 0.00 68 1018.5
20260505194705 52 180 0.0 0.0 0.00 0.02 0.00 68 1018.5
20260505194605 52 180 0.0 0.0 0.00 0.02 0.00 68 1018.5
20260505194505 53 180 0.0 0.0 0.00 0.02 0.00 68 1018.5
20260505194405 53 180 0.0 0.0 0.00 0.02 0.00 67 1018.5
20260505194305 53 180 0.0 0.0 0.00 0.02 0.00 68 1018.5
20260505194205 53 180 0.0 0.0 0.00 0.02 0.00 68 1018.5
20260505194105 53 180 0.0 0.0 0.00 0.02 0.00 68 1018.5
20260505194005 53 180 0.0 0.0 0.00 0.02 0.00 68 1018.5
20260505193905 53 180 0.0 0.0 0.00 0.02 0.00 68 1018.5
20260505193805 53 180 0.0 0.0 0.00 0.02 0.00 68 1018.5
20260505193705 53 202 0.0 0.0 0.00 0.02 0.00 68 1018.5
20260505193605 53 202 0.0 0.0 0.00 0.02 0.00 67 1018.4
20260505193505 53 202 0.0 0.0 0.00 0.02 0.00 67 1018.5
20260505193405 53 202 0.0 0.0 0.00 0.02 0.00 67 1018.5
20260505193305 53 202 0.0 0.0 0.00 0.02 0.00 67 1018.4
20260505193205 53 202 0.0 0.0 0.00 0.02 0.00 67 1018.4
20260505193105 53 202 0.0 0.0 0.00 0.02 0.00 67 1018.4
20260505193005 53 202 0.0 0.0 0.00 0.02 0.00 67 1018.4
20260505192905 53 202 0.0 0.0 0.00 0.02 0.00 67 1018.4
20260505192805 53 202 0.0 0.0 0.00 0.02 0.00 67 1018.7
20260505192705 53 202 0.0 0.0 0.00 0.02 0.00 67 1018.5
20260505192605 54 202 0.0 0.0 0.00 0.02 0.00 67 1018.5
20260505192505 54 202 0.0 0.0 0.00 0.02 0.00 67 1018.5
20260505192405 54 202 0.0 0.0 0.00 0.02 0.00 67 1018.5
20260505192306 54 202 0.0 0.0 0.00 0.02 0.00 67 1018.5
20260505192205 54 202 0.0 0.0 0.00 0.02 0.00 67 1018.5
20260505192105 54 202 0.0 0.0 0.00 0.02 0.00 67 1018.5
20260505192005 54 202 0.0 0.0 0.00 0.02 0.00 66 1018.5
20260505191905 54 202 0.0 0.0 0.00 0.02 0.00 66 1018.4
20260505191805 54 202 0.0 0.0 0.00 0.02 0.00 66 1018.5
20260505191705 54 202 0.0 0.0 0.00 0.02 0.00 66 1018.5
20260505191605 54 202 0.0 0.0 0.00 0.02 0.00 66 1018.5
20260505191505 54 202 0.0 0.0 0.00 0.02 0.00 66 1018.5
20260505191405 54 202 0.0 0.0 0.00 0.02 0.00 66 1018.5
20260505191305 54 202 0.0 0.0 0.00 0.02 0.00 66 1018.4
20260505191205 54 202 0.0 0.0 0.00 0.02 0.00 66 1018.5
20260505191105 54 202 0.0 0.0 0.00 0.02 0.00 66 1018.4
20260505191005 55 202 0.0 0.0 0.00 0.02 0.00 66 1018.2
20260505190905 55 202 0.0 0.0 0.00 0.02 0.00 66 1018.2
20260505190805 55 202 0.0 0.0 0.00 0.02 0.00 66 1018.2
20260505190705 55 202 0.0 0.0 0.00 0.02 0.00 66 1018.2
20260505190605 55 202 0.0 0.0 0.00 0.02 0.00 65 1018.2
20260505190505 55 202 0.0 0.0 0.00 0.02 0.00 65 1018.2
20260505190405 55 202 0.0 0.0 0.00 0.02 0.00 66 1018.0
20260505190305 55 202 0.0 0.0 0.00 0.02 0.00 66 1018.0
20260505190205 55 202 0.0 0.0 0.00 0.02 0.00 66 1018.0
20260505190105 55 202 0.0 0.0 0.00 0.02 0.00 66 1018.2
20260505190005 55 202 0.0 0.0 0.00 0.02 0.00 66 1018.2
20260505185904 55 202 0.0 0.0 0.00 0.02 0.00 66 1018.2
20260505185805 55 202 0.0 0.0 0.00 0.02 0.00 66 1018.2
20260505185704 55 202 0.0 0.0 0.00 0.02 0.00 65 1018.0
20260505185605 55 202 0.0 0.0 0.00 0.02 0.00 65 1018.0
20260505185505 55 202 0.0 0.0 0.00 0.02 0.00 65 1018.2
20260505185405 55 202 0.0 0.0 0.00 0.02 0.00 65 1018.4
20260505185305 56 202 0.0 0.0 0.00 0.02 0.00 65 1018.4